Wetterdaten: Freitag, 22.04.2022
Datum Zeit Temp. Aussen Temp. o. S. Temp +5cm Feuchte Auss Luftdruck Regen Sonnenschein Regendauer Solar Windben Empfang
22.04.2022 00:00 11,1 C 10,0 C 6,7 C 75 % 1009,6 hPa 0,0 l/m 0 min 0 min 0 W/m 6,4 km/h (2 Bft) 100,00 %
22.04.2022 00:02 11,1 C 10,0 C 6,7 C 76 % 1009,6 hPa 0,0 l/m 0 min 0 min 0 W/m 12,9 km/h (3 Bft) 97,06 %
22.04.2022 00:04 11,0 C 10,0 C 6,7 C 76 % 1009,6 hPa 0,0 l/m 0 min 0 min 0 W/m 6,4 km/h (2 Bft) 100,00 %
22.04.2022 00:08 10,9 C 10,0 C 6,7 C 76 % 1009,6 hPa 0,0 l/m 0 min 0 min 0 W/m 9,7 km/h (2 Bft) 100,00 %
22.04.2022 00:10 10,9 C 10,0 C 6,7 C 76 % 1009,6 hPa 0,0 l/m 0 min 0 min 0 W/m 6,4 km/h (2 Bft) 100,00 %
22.04.2022 00:12 10,8 C 10,0 C 6,7 C 76 % 1009,5 hPa 0,0 l/m 0 min 0 min 0 W/m 6,4 km/h (2 Bft) 100,00 %
22.04.2022 00:14 10,8 C 10,0 C 6,7 C 77 % 1009,6 hPa 0,0 l/m 0 min 0 min 0 W/m 12,9 km/h (3 Bft) 100,00 %
22.04.2022 00:16 10,8 C 10,0 C 6,7 C 77 % 1009,5 hPa 0,0 l/m 0 min 0 min 0 W/m 9,7 km/h (2 Bft) 100,00 %
22.04.2022 00:18 10,7 C 10,0 C 6,7 C 77 % 1009,5 hPa 0,0 l/m 0 min 0 min 0 W/m 6,4 km/h (2 Bft) 100,00 %
22.04.2022 00:20 10,7 C 10,0 C 6,7 C 77 % 1009,5 hPa 0,0 l/m 0 min 0 min 0 W/m 16,1 km/h (3 Bft) 100,00 %
22.04.2022 00:22 10,7 C 10,0 C 6,7 C 77 % 1009,5 hPa 0,0 l/m 0 min 0 min 0 W/m 6,4 km/h (2 Bft) 100,00 %
22.04.2022 00:24 10,6 C 10,0 C 6,1 C 77 % 1009,5 hPa 0,0 l/m 0 min 0 min 0 W/m 9,7 km/h (2 Bft) 100,00 %
22.04.2022 00:26 10,6 C 9,4 C 6,7 C 78 % 1009,5 hPa 0,0 l/m 0 min 0 min 0 W/m 9,7 km/h (2 Bft) 100,00 %
22.04.2022 00:28 10,6 C 9,4 C 6,7 C 78 % 1009,5 hPa 0,0 l/m 0 min 0 min 0 W/m 6,4 km/h (2 Bft) 100,00 %
22.04.2022 00:30 10,6 C 9,4 C 6,1 C 78 % 1009,5 hPa 0,0 l/m 0 min 0 min 0 W/m 9,7 km/h (2 Bft) 100,00 %
22.04.2022 00:32 10,6 C 9,4 C 6,1 C 78 % 1009,5 hPa 0,0 l/m 0 min 0 min 0 W/m 12,9 km/h (3 Bft) 97,87 %
22.04.2022 00:34 10,6 C 9,4 C 6,1 C 78 % 1009,6 hPa 0,0 l/m 0 min 0 min 0 W/m 9,7 km/h (2 Bft) 100,00 %
22.04.2022 00:36 10,5 C 9,4 C 6,1 C 79 % 1009,5 hPa 0,0 l/m 0 min 0 min 0 W/m 16,1 km/h (3 Bft) 97,83 %
22.04.2022 00:38 10,4 C 9,4 C 6,1 C 79 % 1009,5 hPa 0,0 l/m 0 min 0 min 0 W/m 12,9 km/h (3 Bft) 97,87 %
22.04.2022 00:40 10,4 C 9,4 C 6,1 C 79 % 1009,5 hPa 0,0 l/m 0 min 0 min 0 W/m 9,7 km/h (2 Bft) 100,00 %
22.04.2022 00:42 10,4 C 9,4 C 6,1 C 79 % 1009,5 hPa 0,0 l/m 0 min 0 min 0 W/m 6,4 km/h (2 Bft) 100,00 %
22.04.2022 00:44 10,4 C 9,4 C 6,1 C 79 % 1009,5 hPa 0,0 l/m 0 min 0 min 0 W/m 6,4 km/h (2 Bft) 100,00 %
22.04.2022 00:46 10,4 C 9,4 C 6,1 C 80 % 1009,5 hPa 0,0 l/m 0 min 0 min 0 W/m 9,7 km/h (2 Bft) 100,00 %
22.04.2022 00:48 10,4 C 9,4 C 6,1 C 79 % 1009,5 hPa 0,0 l/m 0 min 0 min 0 W/m 12,9 km/h (3 Bft) 100,00 %
22.04.2022 00:50 10,3 C 9,4 C 6,1 C 80 % 1009,4 hPa 0,0 l/m 0 min 0 min 0 W/m 12,9 km/h (3 Bft) 100,00 %
22.04.2022 00:52 10,3 C 9,4 C 6,1 C 80 % 1009,5 hPa 0,0 l/m 0 min 0 min 0 W/m 12,9 km/h (3 Bft) 97,87 %
22.04.2022 00:54 10,3 C 9,4 C 6,1 C 80 % 1009,5 hPa 0,0 l/m 0 min 0 min 0 W/m 6,4 km/h (2 Bft) 100,00 %
22.04.2022 00:56 10,3 C 9,4 C 6,1 C 80 % 1009,5 hPa 0,0 l/m 0 min 0 min 0 W/m 6,4 km/h (2 Bft) 100,00 %
22.04.2022 00:58 10,2 C 9,4 C 6,1 C 80 % 1009,4 hPa 0,0 l/m 0 min 0 min 0 W/m 16,1 km/h (3 Bft) 100,00 %
22.04.2022 01:00 10,2 C 9,4 C 6,1 C 80 % 1009,4 hPa 0,0 l/m 0 min 0 min 0 W/m 6,4 km/h (2 Bft) 97,83 %
22.04.2022 01:02 10,2 C 9,4 C 6,1 C 81 % 1009,4 hPa 0,0 l/m 0 min 0 min 0 W/m 6,4 km/h (2 Bft) 95,74 %
22.04.2022 01:04 10,2 C 9,4 C 6,1 C 81 % 1009,4 hPa 0,0 l/m 0 min 0 min 0 W/m 12,9 km/h (3 Bft) 93,62 %
22.04.2022 01:06 10,2 C 9,4 C 6,1 C 81 % 1009,4 hPa 0,0 l/m 0 min 0 min 0 W/m 6,4 km/h (2 Bft) 95,74 %
22.04.2022 01:08 10,1 C 9,4 C 6,1 C 81 % 1009,4 hPa 0,0 l/m 0 min 0 min 0 W/m 6,4 km/h (2 Bft) 95,74 %
22.04.2022 01:10 10,1 C 9,4 C 6,1 C 81 % 1009,4 hPa 0,0 l/m 0 min 0 min 0 W/m 6,4 km/h (2 Bft) 95,74 %
22.04.2022 01:12 10,1 C 8,9 C 5,6 C 81 % 1009,4 hPa 0,0 l/m 0 min 0 min 0 W/m 9,7 km/h (2 Bft) 95,65 %
22.04.2022 01:14 10,1 C 8,9 C 5,6 C 81 % 1009,4 hPa 0,0 l/m 0 min 0 min 0 W/m 6,4 km/h (2 Bft) 95,74 %
22.04.2022 01:16 10,1 C 8,9 C 5,6 C 82 % 1009,4 hPa 0,0 l/m 0 min 0 min 0 W/m 6,4 km/h (2 Bft) 95,74 %
22.04.2022 01:18 10,1 C 8,9 C 5,6 C 82 % 1009,4 hPa 0,0 l/m 0 min 0 min 0 W/m 12,9 km/h (3 Bft) 93,62 %
22.04.2022 01:20 10,0 C 8,9 C 5,6 C 82 % 1009,4 hPa 0,0 l/m 0 min 0 min 0 W/m 6,4 km/h (2 Bft) 95,74 %
22.04.2022 01:22 10,0 C 8,9 C 5,6 C 82 % 1009,4 hPa 0,0 l/m 0 min 0 min 0 W/m 6,4 km/h (2 Bft) 93,48 %
22.04.2022 01:24 10,0 C 8,9 C 5,6 C 82 % 1009,4 hPa 0,0 l/m 0 min 0 min 0 W/m 9,7 km/h (2 Bft) 95,74 %
22.04.2022 01:26 9,9 C 8,9 C 5,6 C 82 % 1009,4 hPa 0,0 l/m 0 min 0 min 0 W/m 6,4 km/h (2 Bft) 95,74 %
22.04.2022 01:28 9,9 C 8,9 C 5,6 C 82 % 1009,4 hPa 0,0 l/m 0 min 0 min 0 W/m 6,4 km/h (2 Bft) 95,74 %
22.04.2022 01:30 9,9 C 8,9 C 5,6 C 82 % 1009,4 hPa 0,0 l/m 0 min 0 min 0 W/m 6,4 km/h (2 Bft) 95,74 %
22.04.2022 01:32 9,9 C 8,9 C 5,6 C 82 % 1009,4 hPa 0,0 l/m 0 min 0 min 0 W/m 6,4 km/h (2 Bft) 95,74 %
22.04.2022 01:34 9,8 C 8,9 C 5,6 C 82 % 1009,3 hPa 0,0 l/m 0 min 0 min 0 W/m 6,4 km/h (2 Bft) 95,65 %
22.04.2022 01:36 9,8 C 8,9 C 5,6 C 83 % 1009,4 hPa 0,0 l/m 0 min 0 min 0 W/m 6,4 km/h (2 Bft) 93,62 %
22.04.2022 01:38 9,8 C 8,9 C 5,6 C 83 % 1009,3 hPa 0,0 l/m 0 min 0 min 0 W/m 6,4 km/h (2 Bft) 93,62 %
22.04.2022 01:40 9,8 C 8,9 C 5,6 C 83 % 1009,3 hPa 0,0 l/m 0 min 0 min 0 W/m 6,4 km/h (2 Bft) 97,87 %
22.04.2022 01:42 9,8 C 8,9 C 5,6 C 83 % 1009,3 hPa 0,0 l/m 0 min 0 min 0 W/m 12,9 km/h (3 Bft) 97,87 %
22.04.2022 01:44 9,7 C 8,9 C 5,6 C 83 % 1009,2 hPa 0,0 l/m 0 min 0 min 0 W/m 9,7 km/h (2 Bft) 97,87 %
22.04.2022 01:46 9,7 C 8,9 C 5,6 C 83 % 1009,2 hPa 0,0 l/m 0 min 0 min 0 W/m 6,4 km/h (2 Bft) 97,83 %
22.04.2022 01:48 9,7 C 8,9 C 5,6 C 83 % 1009,2 hPa 0,0 l/m 0 min 0 min 0 W/m 6,4 km/h (2 Bft) 97,87 %
22.04.2022 01:50 9,7 C 8,9 C 5,6 C 83 % 1009,2 hPa 0,0 l/m 0 min 0 min 0 W/m 9,7 km/h (2 Bft) 95,74 %
22.04.2022 01:52 9,6 C 8,9 C 5,6 C 83 % 1009,2 hPa 0,0 l/m 0 min 0 min 0 W/m 6,4 km/h (2 Bft) 97,87 %
22.04.2022 01:54 9,6 C 8,3 C 5,6 C 84 % 1009,2 hPa 0,0 l/m 0 min 0 min 0 W/m 6,4 km/h (2 Bft) 95,74 %
22.04.2022 01:56 9,6 C 8,3 C 5,6 C 84 % 1009,1 hPa 0,0 l/m 0 min 0 min 0 W/m 9,7 km/h (2 Bft) 95,74 %
22.04.2022 01:58 9,6 C 8,3 C 5,6 C 84 % 1009,2 hPa 0,0 l/m 0 min 0 min 0 W/m 6,4 km/h (2 Bft) 97,83 %
22.04.2022 02:00 9,6 C 8,3 C 5,6 C 84 % 1009,1 hPa 0,0 l/m 0 min 0 min 0 W/m 9,7 km/h (2 Bft) 95,74 %
22.04.2022 02:02 9,5 C 8,3 C 5,6 C 84 % 1009,1 hPa 0,0 l/m 0 min 0 min 0 W/m 6,4 km/h (2 Bft) 97,87 %
22.04.2022 02:04 9,5 C 8,3 C 5,6 C 84 % 1009,0 hPa 0,0 l/m 0 min 0 min 0 W/m 6,4 km/h (2 Bft) 97,87 %
22.04.2022 02:06 9,4 C 8,3 C 5,0 C 84 % 1009,0 hPa 0,0 l/m 0 min 0 min 0 W/m 6,4 km/h (2 Bft) 97,87 %
22.04.2022 02:08 9,4 C 8,3 C 5,0 C 84 % 1009,0 hPa 0,0 l/m 0 min 0 min 0 W/m 6,4 km/h (2 Bft) 95,65 %
22.04.2022 02:10 9,4 C 8,3 C 5,0 C 84 % 1008,9 hPa 0,0 l/m 0 min 0 min 0 W/m 6,4 km/h (2 Bft) 97,87 %
22.04.2022 02:12 9,4 C 8,3 C 5,0 C 84 % 1009,0 hPa 0,0 l/m 0 min 0 min 0 W/m 6,4 km/h (2 Bft) 93,62 %
22.04.2022 02:14 9,3 C 8,3 C 5,0 C 84 % 1009,0 hPa 0,0 l/m 0 min 0 min 0 W/m 6,4 km/h (2 Bft) 97,87 %
22.04.2022 02:16 9,3 C 8,3 C 5,0 C 85 % 1009,0 hPa 0,0 l/m 0 min 0 min 0 W/m 6,4 km/h (2 Bft) 97,87 %
22.04.2022 02:18 9,3 C 8,3 C 5,0 C 85 % 1009,0 hPa 0,0 l/m 0 min 0 min 0 W/m 6,4 km/h (2 Bft) 97,87 %
22.04.2022 02:20 9,3 C 8,3 C 5,0 C 85 % 1009,0 hPa 0,0 l/m 0 min 0 min 0 W/m 3,2 km/h (1 Bft) 97,83 %
22.04.2022 02:22 9,3 C 8,3 C 5,0 C 85 % 1009,0 hPa 0,0 l/m 0 min 0 min 0 W/m 9,7 km/h (2 Bft) 97,87 %
22.04.2022 02:24 9,2 C 8,3 C 5,0 C 85 % 1008,9 hPa 0,0 l/m 0 min 0 min 0 W/m 6,4 km/h (2 Bft) 97,87 %
22.04.2022 02:26 9,2 C 8,3 C 5,0 C 85 % 1008,9 hPa 0,0 l/m 0 min 0 min 0 W/m 6,4 km/h (2 Bft) 97,87 %
22.04.2022 02:28 9,2 C 8,3 C 5,0 C 85 % 1008,9 hPa 0,0 l/m 0 min 0 min 0 W/m 6,4 km/h (2 Bft) 95,74 %
22.04.2022 02:30 9,2 C 8,3 C 5,0 C 85 % 1008,9 hPa 0,0 l/m 0 min 0 min 0 W/m 6,4 km/h (2 Bft) 95,74 %
22.04.2022 02:32 9,1 C 8,3 C 5,0 C 85 % 1008,9 hPa 0,0 l/m 0 min 0 min 0 W/m 3,2 km/h (1 Bft) 100,00 %
22.04.2022 02:34 9,1 C 8,3 C 5,0 C 85 % 1008,9 hPa 0,0 l/m 0 min 0 min 0 W/m 6,4 km/h (2 Bft) 100,00 %
22.04.2022 02:36 9,1 C 8,3 C 5,0 C 85 % 1008,9 hPa 0,0 l/m 0 min 0 min 0 W/m 6,4 km/h (2 Bft) 100,00 %
22.04.2022 02:38 9,1 C 8,3 C 5,0 C 85 % 1008,9 hPa 0,0 l/m 0 min 0 min 0 W/m 3,2 km/h (1 Bft) 100,00 %
22.04.2022 02:40 9,1 C 8,3 C 5,0 C 86 % 1008,9 hPa 0,0 l/m 0 min 0 min 0 W/m 3,2 km/h (1 Bft) 97,87 %
22.04.2022 02:42 9,1 C 8,3 C 5,0 C 85 % 1008,9 hPa 0,0 l/m 0 min 0 min 0 W/m 6,4 km/h (2 Bft) 100,00 %
22.04.2022 02:44 9,0 C 7,8 C 5,0 C 86 % 1008,9 hPa 0,0 l/m 0 min 0 min 0 W/m 3,2 km/h (1 Bft) 97,83 %
22.04.2022 02:46 9,0 C 7,8 C 5,0 C 86 % 1008,9 hPa 0,0 l/m 0 min 0 min 0 W/m 3,2 km/h (1 Bft) 97,87 %
22.04.2022 02:48 9,0 C 7,8 C 5,0 C 86 % 1008,9 hPa 0,0 l/m 0 min 0 min 0 W/m 9,7 km/h (2 Bft) 97,87 %
22.04.2022 02:50 8,9 C 7,8 C 5,0 C 86 % 1008,9 hPa 0,0 l/m 0 min 0 min 0 W/m 6,4 km/h (2 Bft) 95,74 %
22.04.2022 02:52 8,9 C 7,8 C 4,4 C 86 % 1008,9 hPa 0,0 l/m 0 min 0 min 0 W/m 3,2 km/h (1 Bft) 95,74 %
22.04.2022 02:54 8,9 C 7,8 C 4,4 C 86 % 1008,9 hPa 0,0 l/m 0 min 0 min 0 W/m 6,4 km/h (2 Bft) 97,87 %
22.04.2022 02:56 8,8 C 7,8 C 4,4 C 86 % 1008,9 hPa 0,0 l/m 0 min 0 min 0 W/m 6,4 km/h (2 Bft) 97,83 %
22.04.2022 02:58 8,8 C 7,8 C 4,4 C 86 % 1008,9 hPa 0,0 l/m 0 min 0 min 0 W/m 6,4 km/h (2 Bft) 97,87 %
22.04.2022 03:00 8,8 C 7,8 C 4,4 C 86 % 1008,9 hPa 0,0 l/m 0 min 0 min 0 W/m 6,4 km/h (2 Bft) 97,87 %
22.04.2022 03:02 8,8 C 7,8 C 4,4 C 86 % 1008,9 hPa 0,0 l/m 0 min 0 min 0 W/m 3,2 km/h (1 Bft) 95,74 %
22.04.2022 03:04 8,8 C 7,8 C 4,4 C 86 % 1008,8 hPa 0,0 l/m 0 min 0 min 0 W/m 3,2 km/h (1 Bft) 97,87 %
22.04.2022 03:06 8,8 C 7,8 C 4,4 C 86 % 1008,8 hPa 0,0 l/m 0 min 0 min 0 W/m 6,4 km/h (2 Bft) 97,83 %
22.04.2022 03:08 8,8 C 7,8 C 4,4 C 87 % 1008,7 hPa 0,0 l/m 0 min 0 min 0 W/m 6,4 km/h (2 Bft) 97,87 %
22.04.2022 03:10 8,7 C 7,8 C 4,4 C 87 % 1008,7 hPa 0,0 l/m 0 min 0 min 0 W/m 6,4 km/h (2 Bft) 95,74 %
22.04.2022 03:12 8,7 C 7,8 C 4,4 C 87 % 1008,7 hPa 0,0 l/m 0 min 0 min 0 W/m 6,4 km/h (2 Bft) 97,87 %
22.04.2022 03:14 8,7 C 7,8 C 4,4 C 87 % 1008,7 hPa 0,0 l/m 0 min 0 min 0 W/m 6,4 km/h (2 Bft) 97,87 %
22.04.2022 03:16 8,7 C 7,8 C 4,4 C 87 % 1008,7 hPa 0,0 l/m 0 min 0 min 0 W/m 9,7 km/h (2 Bft) 97,87 %
22.04.2022 03:18 8,7 C 7,8 C 5,0 C 87 % 1008,7 hPa 0,0 l/m 0 min 0 min 0 W/m 6,4 km/h (2 Bft) 97,83 %
22.04.2022 03:20 8,8 C 7,8 C 5,0 C 87 % 1008,6 hPa 0,0 l/m 0 min 0 min 0 W/m 9,7 km/h (2 Bft) 97,87 %
22.04.2022 03:22 8,8 C 7,8 C 5,0 C 87 % 1008,6 hPa 0,0 l/m 0 min 0 min 0 W/m 6,4 km/h (2 Bft) 97,87 %
22.04.2022 03:24 8,8 C 7,8 C 5,0 C 87 % 1008,6 hPa 0,0 l/m 0 min 0 min 0 W/m 6,4 km/h (2 Bft) 97,87 %
22.04.2022 03:26 8,8 C 7,8 C 5,0 C 87 % 1008,5 hPa 0,0 l/m 0 min 0 min 0 W/m 9,7 km/h (2 Bft) 97,87 %
22.04.2022 03:28 8,8 C 7,8 C 5,0 C 88 % 1008,6 hPa 0,0 l/m 0 min 0 min 0 W/m 6,4 km/h (2 Bft) 95,74 %
22.04.2022 03:30 8,8 C 7,8 C 5,0 C 88 % 1008,5 hPa 0,0 l/m 0 min 0 min 0 W/m 3,2 km/h (1 Bft) 97,83 %
22.04.2022 03:32 8,8 C 7,8 C 5,0 C 88 % 1008,5 hPa 0,0 l/m 0 min 0 min 0 W/m 6,4 km/h (2 Bft) 97,87 %
22.04.2022 03:34 8,8 C 7,8 C 5,0 C 88 % 1008,4 hPa 0,0 l/m 0 min 0 min 0 W/m 6,4 km/h (2 Bft) 93,62 %
22.04.2022 03:36 8,8 C 7,8 C 5,0 C 88 % 1008,4 hPa 0,0 l/m 0 min 0 min 0 W/m 9,7 km/h (2 Bft) 97,87 %
22.04.2022 03:38 8,8 C 7,8 C 5,0 C 88 % 1008,5 hPa 0,0 l/m 0 min 0 min 0 W/m 9,7 km/h (2 Bft) 97,87 %
22.04.2022 03:40 8,8 C 7,8 C 5,0 C 88 % 1008,4 hPa 0,0 l/m 0 min 0 min 0 W/m 6,4 km/h (2 Bft) 97,87 %
22.04.2022 03:42 8,8 C 7,8 C 5,0 C 88 % 1008,4 hPa 0,0 l/m 0 min 0 min 0 W/m 12,9 km/h (3 Bft) 95,65 %
22.04.2022 03:44 8,8 C 7,8 C 5,0 C 88 % 1008,4 hPa 0,0 l/m 0 min 0 min 0 W/m 9,7 km/h (2 Bft) 97,87 %
22.04.2022 03:46 8,8 C 7,8 C 5,0 C 88 % 1008,4 hPa 0,0 l/m 0 min 0 min 0 W/m 9,7 km/h (2 Bft) 97,87 %
22.04.2022 03:48 8,8 C 7,8 C 5,0 C 88 % 1008,4 hPa 0,0 l/m 0 min 0 min 0 W/m 6,4 km/h (2 Bft) 97,87 %
22.04.2022 03:50 8,8 C 7,8 C 5,0 C 88 % 1008,4 hPa 0,0 l/m 0 min 0 min 0 W/m 6,4 km/h (2 Bft) 97,87 %
22.04.2022 03:52 8,8 C 7,8 C 5,0 C 88 % 1008,4 hPa 0,0 l/m 0 min 0 min 0 W/m 12,9 km/h (3 Bft) 100,00 %
22.04.2022 03:54 8,8 C 7,8 C 5,0 C 88 % 1008,4 hPa 0,0 l/m 0 min 0 min 0 W/m 9,7 km/h (2 Bft) 100,00 %
22.04.2022 03:56 8,8 C 7,8 C 5,0 C 88 % 1008,4 hPa 0,0 l/m 0 min 0 min 0 W/m 9,7 km/h (2 Bft) 97,87 %
22.04.2022 03:58 8,8 C 7,8 C 4,4 C 88 % 1008,4 hPa 0,0 l/m 0 min 0 min 0 W/m 6,4 km/h (2 Bft) 100,00 %
22.04.2022 04:00 8,8 C 7,8 C 4,4 C 88 % 1008,4 hPa 0,0 l/m 0 min 0 min 0 W/m 9,7 km/h (2 Bft) 100,00 %
22.04.2022 04:02 8,8 C 7,8 C 4,4 C 88 % 1008,5 hPa 0,0 l/m 0 min 0 min 0 W/m 3,2 km/h (1 Bft) 100,00 %
22.04.2022 04:07 8,8 C 7,8 C 4,4 C 88 % 1008,5 hPa 0,0 l/m 0 min 0 min 0 W/m 9,7 km/h (2 Bft) 100,00 %
22.04.2022 04:08 8,8 C 7,8 C 4,4 C 88 % 1008,5 hPa 0,0 l/m 0 min 0 min 0 W/m 6,4 km/h (2 Bft) 100,00 %
22.04.2022 04:10 8,7 C 7,8 C 4,4 C 88 % 1008,5 hPa 0,0 l/m 0 min 0 min 0 W/m 9,7 km/h (2 Bft) 100,00 %
22.04.2022 04:12 8,7 C 7,8 C 4,4 C 88 % 1008,5 hPa 0,0 l/m 0 min 0 min 0 W/m 9,7 km/h (2 Bft) 100,00 %
22.04.2022 04:14 8,7 C 7,8 C 4,4 C 88 % 1008,5 hPa 0,0 l/m 0 min 0 min 0 W/m 9,7 km/h (2 Bft) 100,00 %
22.04.2022 04:16 8,6 C 7,8 C 4,4 C 88 % 1008,4 hPa 0,0 l/m 0 min 0 min 0 W/m 6,4 km/h (2 Bft) 100,00 %
22.04.2022 04:18 8,6 C 7,8 C 4,4 C 88 % 1008,4 hPa 0,0 l/m 0 min 0 min 0 W/m 6,4 km/h (2 Bft) 100,00 %
22.04.2022 04:20 8,6 C 7,2 C 4,4 C 88 % 1008,4 hPa 0,0 l/m 0 min 0 min 0 W/m 6,4 km/h (2 Bft) 100,00 %
22.04.2022 04:22 8,6 C 7,2 C 4,4 C 88 % 1008,5 hPa 0,0 l/m 0 min 0 min 0 W/m 6,4 km/h (2 Bft) 100,00 %
22.04.2022 04:24 8,5 C 7,2 C 4,4 C 88 % 1008,4 hPa 0,0 l/m 0 min 0 min 0 W/m 6,4 km/h (2 Bft) 97,87 %
22.04.2022 04:26 8,5 C 7,2 C 4,4 C 88 % 1008,4 hPa 0,0 l/m 0 min 0 min 0 W/m 3,2 km/h (1 Bft) 97,87 %
22.04.2022 04:28 8,4 C 7,2 C 4,4 C 88 % 1008,4 hPa 0,0 l/m 0 min 0 min 0 W/m 6,4 km/h (2 Bft) 95,65 %
22.04.2022 04:30 8,4 C 7,2 C 4,4 C 88 % 1008,4 hPa 0,0 l/m 0 min 0 min 0 W/m 6,4 km/h (2 Bft) 97,87 %
22.04.2022 04:32 8,4 C 7,2 C 4,4 C 88 % 1008,4 hPa 0,0 l/m 0 min 0 min 0 W/m 3,2 km/h (1 Bft) 100,00 %
22.04.2022 04:34 8,4 C 7,2 C 4,4 C 88 % 1008,3 hPa 0,0 l/m 0 min 0 min 0 W/m 3,2 km/h (1 Bft) 93,48 %
22.04.2022 04:36 8,4 C 7,2 C 4,4 C 88 % 1008,3 hPa 0,0 l/m 0 min 0 min 0 W/m 3,2 km/h (1 Bft) 67,31 %
22.04.2022 04:38 8,3 C 7,2 C 4,4 C 89 % 1008,3 hPa 0,0 l/m 0 min 0 min 0 W/m 6,4 km/h (2 Bft) 97,83 %
22.04.2022 04:40 8,3 C 7,2 C 4,4 C 89 % 1008,3 hPa 0,0 l/m 0 min 0 min 0 W/m 6,4 km/h (2 Bft) 95,74 %
22.04.2022 04:42 8,3 C 7,2 C 4,4 C 89 % 1008,3 hPa 0,0 l/m 0 min 0 min 0 W/m 6,4 km/h (2 Bft) 95,74 %
22.04.2022 04:44 8,3 C 7,2 C 4,4 C 89 % 1008,3 hPa 0,0 l/m 0 min 0 min 0 W/m 6,4 km/h (2 Bft) 97,87 %
22.04.2022 04:46 8,3 C 7,2 C 4,4 C 89 % 1008,3 hPa 0,0 l/m 0 min 0 min 0 W/m 3,2 km/h (1 Bft) 97,56 %
22.04.2022 04:48 8,3 C 7,2 C 4,4 C 89 % 1008,3 hPa 0,0 l/m 0 min 0 min 0 W/m 3,2 km/h (1 Bft) 100,00 %
22.04.2022 04:50 8,3 C 7,2 C 3,9 C 89 % 1008,3 hPa 0,0 l/m 0 min 0 min 0 W/m 6,4 km/h (2 Bft) 97,87 %
22.04.2022 04:52 8,3 C 7,2 C 3,9 C 89 % 1008,2 hPa 0,0 l/m 0 min 0 min 0 W/m 3,2 km/h (1 Bft) 95,65 %
22.04.2022 04:54 8,2 C 7,2 C 3,9 C 89 % 1008,2 hPa 0,0 l/m 0 min 0 min 0 W/m 6,4 km/h (2 Bft) 97,87 %
22.04.2022 04:56 8,2 C 7,2 C 3,9 C 89 % 1008,3 hPa 0,0 l/m 0 min 0 min 0 W/m 6,4 km/h (2 Bft) 93,62 %
22.04.2022 04:58 8,2 C 7,2 C 3,9 C 89 % 1008,2 hPa 0,0 l/m 0 min 0 min 0 W/m 3,2 km/h (1 Bft) 98,11 %
22.04.2022 05:00 8,2 C 7,2 C 3,9 C 89 % 1008,3 hPa 0,0 l/m 0 min 0 min 0 W/m 6,4 km/h (2 Bft) 97,87 %
22.04.2022 05:02 8,2 C 7,2 C 3,9 C 89 % 1008,2 hPa 0,0 l/m 0 min 0 min 0 W/m 6,4 km/h (2 Bft) 97,50 %
22.04.2022 05:04 8,1 C 7,2 C 3,9 C 89 % 1008,2 hPa 0,0 l/m 0 min 0 min 0 W/m 6,4 km/h (2 Bft) 97,87 %
22.04.2022 05:06 8,1 C 7,2 C 3,9 C 89 % 1008,2 hPa 0,0 l/m 0 min 0 min 0 W/m 3,2 km/h (1 Bft) 93,62 %
22.04.2022 05:08 8,1 C 7,2 C 3,9 C 89 % 1008,2 hPa 0,0 l/m 0 min 0 min 0 W/m 6,4 km/h (2 Bft) 97,87 %
22.04.2022 05:10 8,1 C 7,2 C 3,9 C 89 % 1008,2 hPa 0,0 l/m 0 min 0 min 0 W/m 3,2 km/h (1 Bft) 97,87 %
22.04.2022 05:12 8,1 C 7,2 C 3,9 C 89 % 1008,2 hPa 0,0 l/m 0 min 0 min 0 W/m 6,4 km/h (2 Bft) 97,87 %
22.04.2022 05:14 8,1 C 7,2 C 3,9 C 90 % 1008,2 hPa 0,0 l/m 0 min 0 min 0 W/m 6,4 km/h (2 Bft) 97,83 %
22.04.2022 05:16 8,1 C 7,2 C 3,9 C 90 % 1008,1 hPa 0,0 l/m 0 min 0 min 0 W/m 3,2 km/h (1 Bft) 95,74 %
22.04.2022 05:18 8,1 C 7,2 C 3,9 C 90 % 1008,2 hPa 0,0 l/m 0 min 0 min 0 W/m 6,4 km/h (2 Bft) 93,62 %
22.04.2022 05:20 8,1 C 7,2 C 3,9 C 90 % 1008,2 hPa 0,0 l/m 0 min 0 min 0 W/m 3,2 km/h (1 Bft) 97,87 %
22.04.2022 05:22 8,1 C 7,2 C 3,9 C 90 % 1008,2 hPa 0,0 l/m 0 min 0 min 0 W/m 6,4 km/h (2 Bft) 95,74 %
22.04.2022 05:24 8,0 C 7,2 C 3,9 C 90 % 1008,1 hPa 0,0 l/m 0 min 0 min 0 W/m 9,7 km/h (2 Bft) 97,87 %
22.04.2022 05:26 8,0 C 7,2 C 3,9 C 90 % 1008,1 hPa 0,0 l/m 0 min 0 min 0 W/m 6,4 km/h (2 Bft) 95,65 %
22.04.2022 05:28 8,1 C 7,2 C 3,9 C 90 % 1008,1 hPa 0,0 l/m 0 min 0 min 0 W/m 6,4 km/h (2 Bft) 93,62 %
22.04.2022 05:30 8,1 C 7,2 C 3,9 C 90 % 1008,1 hPa 0,0 l/m 0 min 0 min 0 W/m 3,2 km/h (1 Bft) 95,74 %
22.04.2022 05:32 8,1 C 7,2 C 3,9 C 90 % 1008,1 hPa 0,0 l/m 0 min 0 min 0 W/m 12,9 km/h (3 Bft) 93,62 %
22.04.2022 05:34 8,1 C 7,2 C 3,9 C 90 % 1008,1 hPa 0,0 l/m 0 min 0 min 0 W/m 6,4 km/h (2 Bft) 95,74 %
22.04.2022 05:36 8,1 C 7,2 C 3,9 C 90 % 1008,1 hPa 0,0 l/m 0 min 0 min 0 W/m 3,2 km/h (1 Bft) 96,15 %
22.04.2022 05:38 8,1 C 7,2 C 3,9 C 90 % 1008,1 hPa 0,0 l/m 0 min 0 min 0 W/m 9,7 km/h (2 Bft) 91,49 %
22.04.2022 05:40 8,1 C 7,2 C 4,4 C 90 % 1008,0 hPa 0,0 l/m 0 min 0 min 0 W/m 9,7 km/h (2 Bft) 95,74 %
22.04.2022 05:42 8,1 C 7,2 C 4,4 C 90 % 1008,0 hPa 0,0 l/m 0 min 0 min 0 W/m 9,7 km/h (2 Bft) 95,74 %
22.04.2022 05:44 8,1 C 7,2 C 4,4 C 90 % 1008,0 hPa 0,0 l/m 0 min 0 min 0 W/m 6,4 km/h (2 Bft) 93,62 %
22.04.2022 05:46 8,1 C 7,2 C 4,4 C 90 % 1008,0 hPa 0,0 l/m 0 min 0 min 0 W/m 9,7 km/h (2 Bft) 97,56 %
22.04.2022 05:48 8,1 C 7,2 C 4,4 C 90 % 1008,0 hPa 0,0 l/m 0 min 0 min 0 W/m 6,4 km/h (2 Bft) 93,62 %
22.04.2022 05:50 8,1 C 7,2 C 4,4 C 90 % 1008,0 hPa 0,0 l/m 0 min 0 min 0 W/m 6,4 km/h (2 Bft) 95,65 %
22.04.2022 05:52 8,1 C 7,2 C 4,4 C 90 % 1008,0 hPa 0,0 l/m 0 min 0 min 0 W/m 9,7 km/h (2 Bft) 95,74 %
22.04.2022 05:54 8,1 C 7,2 C 4,4 C 90 % 1008,0 hPa 0,0 l/m 0 min 0 min 0 W/m 6,4 km/h (2 Bft) 95,74 %
22.04.2022 05:56 8,1 C 7,2 C 4,4 C 90 % 1008,0 hPa 0,0 l/m 0 min 0 min 0 W/m 9,7 km/h (2 Bft) 97,87 %
22.04.2022 05:58 8,1 C 7,2 C 4,4 C 90 % 1008,0 hPa 0,0 l/m 0 min 0 min 0 W/m 3,2 km/h (1 Bft) 97,87 %
22.04.2022 06:00 8,1 C 7,2 C 4,4 C 90 % 1008,0 hPa 0,0 l/m 0 min 0 min 0 W/m 6,4 km/h (2 Bft) 97,87 %
22.04.2022 06:02 8,1 C 7,2 C 4,4 C 90 % 1008,0 hPa 0,0 l/m 0 min 0 min 0 W/m 3,2 km/h (1 Bft) 97,83 %
22.04.2022 06:04 8,1 C 7,2 C 3,9 C 90 % 1008,0 hPa 0,0 l/m 0 min 0 min 0 W/m 3,2 km/h (1 Bft) 97,87 %
22.04.2022 06:08 8,1 C 7,2 C 3,9 C 90 % 1008,0 hPa 0,0 l/m 0 min 0 min 0 W/m 6,4 km/h (2 Bft) 99,00 %
22.04.2022 06:10 8,1 C 7,2 C 3,9 C 90 % 1008,0 hPa 0,0 l/m 0 min 0 min 0 W/m 3,2 km/h (1 Bft) 100,00 %
22.04.2022 06:12 8,1 C 7,2 C 3,9 C 90 % 1008,0 hPa 0,0 l/m 0 min 0 min 0 W/m 6,4 km/h (2 Bft) 95,65 %
22.04.2022 06:14 8,1 C 7,2 C 3,9 C 90 % 1007,9 hPa 0,0 l/m 0 min 0 min 0 W/m 6,4 km/h (2 Bft) 95,74 %
22.04.2022 06:16 8,1 C 7,2 C 3,9 C 90 % 1007,9 hPa 0,0 l/m 0 min 0 min 0 W/m 6,4 km/h (2 Bft) 97,56 %
22.04.2022 06:18 8,1 C 7,2 C 3,9 C 90 % 1007,9 hPa 0,0 l/m 0 min 0 min 0 W/m 0,0 km/h (0 Bft) 97,87 %
22.04.2022 06:20 8,1 C 7,2 C 3,9 C 90 % 1007,9 hPa 0,0 l/m 0 min 0 min 0 W/m 3,2 km/h (1 Bft) 97,87 %
22.04.2022 06:22 8,0 C 7,2 C 3,9 C 90 % 1007,9 hPa 0,0 l/m 0 min 0 min 0 W/m 6,4 km/h (2 Bft) 97,87 %
22.04.2022 06:24 8,0 C 7,2 C 3,9 C 90 % 1007,9 hPa 0,0 l/m 0 min 0 min 0 W/m 6,4 km/h (2 Bft) 97,83 %
22.04.2022 06:26 8,0 C 6,7 C 3,9 C 90 % 1007,9 hPa 0,0 l/m 0 min 0 min 1 W/m 3,2 km/h (1 Bft) 97,87 %
22.04.2022 06:28 8,0 C 6,7 C 3,9 C 90 % 1007,9 hPa 0,0 l/m 0 min 0 min 5 W/m 6,4 km/h (2 Bft) 97,87 %
22.04.2022 06:30 7,9 C 6,7 C 3,9 C 90 % 1007,9 hPa 0,0 l/m 0 min 0 min 5 W/m 6,4 km/h (2 Bft) 97,87 %
22.04.2022 06:32 7,9 C 6,7 C 3,9 C 90 % 1007,8 hPa 0,0 l/m 0 min 0 min 7 W/m 3,2 km/h (1 Bft) 97,87 %
22.04.2022 06:34 7,9 C 7,2 C 3,9 C 90 % 1007,8 hPa 0,0 l/m 0 min 0 min 7 W/m 6,4 km/h (2 Bft) 97,87 %
22.04.2022 06:36 7,9 C 7,2 C 3,9 C 90 % 1007,9 hPa 0,0 l/m 0 min 0 min 9 W/m 3,2 km/h (1 Bft) 96,15 %
22.04.2022 06:38 7,9 C 7,2 C 3,9 C 90 % 1007,8 hPa 0,0 l/m 0 min 0 min 10 W/m 6,4 km/h (2 Bft) 93,62 %
22.04.2022 06:40 7,9 C 7,2 C 3,9 C 91 % 1007,8 hPa 0,0 l/m 0 min 0 min 11 W/m 3,2 km/h (1 Bft) 95,12 %
22.04.2022 06:42 7,9 C 7,2 C 3,9 C 91 % 1007,8 hPa 0,0 l/m 0 min 0 min 11 W/m 6,4 km/h (2 Bft) 100,00 %
22.04.2022 06:44 7,9 C 7,2 C 3,9 C 91 % 1007,8 hPa 0,0 l/m 0 min 0 min 12 W/m 3,2 km/h (1 Bft) 100,00 %
22.04.2022 06:46 7,9 C 7,2 C 3,9 C 91 % 1007,8 hPa 0,0 l/m 0 min 0 min 13 W/m 3,2 km/h (1 Bft) 100,00 %
22.04.2022 06:48 7,9 C 7,2 C 3,9 C 91 % 1007,8 hPa 0,0 l/m 0 min 0 min 14 W/m 6,4 km/h (2 Bft) 98,08 %
22.04.2022 06:50 8,0 C 7,2 C 3,9 C 91 % 1007,8 hPa 0,0 l/m 0 min 0 min 16 W/m 3,2 km/h (1 Bft) 100,00 %
22.04.2022 06:52 7,9 C 7,2 C 3,9 C 91 % 1007,8 hPa 0,0 l/m 0 min 0 min 16 W/m 6,4 km/h (2 Bft) 100,00 %
22.04.2022 06:54 7,9 C 7,2 C 3,9 C 91 % 1007,9 hPa 0,0 l/m 0 min 0 min 18 W/m 6,4 km/h (2 Bft) 100,00 %
22.04.2022 06:56 7,9 C 7,2 C 3,9 C 91 % 1007,9 hPa 0,0 l/m 0 min 0 min 18 W/m 6,4 km/h (2 Bft) 100,00 %
22.04.2022 06:58 7,9 C 7,2 C 3,9 C 91 % 1007,8 hPa 0,0 l/m 0 min 0 min 19 W/m 6,4 km/h (2 Bft) 100,00 %
22.04.2022 07:00 7,9 C 7,2 C 3,9 C 91 % 1007,8 hPa 0,0 l/m 0 min 0 min 19 W/m 6,4 km/h (2 Bft) 100,00 %
22.04.2022 07:02 7,9 C 7,2 C 3,9 C 91 % 1007,8 hPa 0,0 l/m 0 min 0 min 21 W/m 3,2 km/h (1 Bft) 100,00 %
22.04.2022 07:04 8,0 C 7,2 C 3,9 C 91 % 1007,8 hPa 0,0 l/m 0 min 0 min 22 W/m 6,4 km/h (2 Bft) 100,00 %
22.04.2022 07:06 8,0 C 7,2 C 3,9 C 91 % 1007,8 hPa 0,0 l/m 0 min 0 min 23 W/m 12,9 km/h (3 Bft) 100,00 %
22.04.2022 07:08 8,0 C 7,2 C 3,9 C 91 % 1007,8 hPa 0,0 l/m 0 min 0 min 25 W/m 6,4 km/h (2 Bft) 100,00 %
22.04.2022 07:10 8,0 C 7,2 C 3,9 C 91 % 1007,8 hPa 0,0 l/m 0 min 0 min 25 W/m 6,4 km/h (2 Bft) 100,00 %
22.04.2022 07:12 8,1 C 7,2 C 4,4 C 91 % 1007,8 hPa 0,0 l/m 0 min 0 min 26 W/m 3,2 km/h (1 Bft) 97,87 %
22.04.2022 07:14 8,1 C 7,2 C 4,4 C 92 % 1007,8 hPa 0,0 l/m 0 min 0 min 26 W/m 6,4 km/h (2 Bft) 100,00 %
22.04.2022 07:16 8,1 C 7,2 C 4,4 C 92 % 1007,8 hPa 0,0 l/m 0 min 0 min 28 W/m 6,4 km/h (2 Bft) 100,00 %
22.04.2022 07:18 8,1 C 7,2 C 4,4 C 92 % 1007,8 hPa 0,0 l/m 0 min 0 min 28 W/m 6,4 km/h (2 Bft) 97,87 %
22.04.2022 07:20 8,1 C 7,8 C 4,4 C 92 % 1007,8 hPa 0,0 l/m 0 min 0 min 29 W/m 6,4 km/h (2 Bft) 100,00 %
22.04.2022 07:22 8,1 C 7,8 C 4,4 C 92 % 1007,8 hPa 0,0 l/m 0 min 0 min 30 W/m 9,7 km/h (2 Bft) 97,87 %
22.04.2022 07:24 8,2 C 7,8 C 4,4 C 92 % 1007,7 hPa 0,0 l/m 0 min 0 min 31 W/m 6,4 km/h (2 Bft) 100,00 %
22.04.2022 07:26 8,2 C 7,8 C 4,4 C 92 % 1007,7 hPa 0,0 l/m 0 min 0 min 32 W/m 6,4 km/h (2 Bft) 100,00 %
22.04.2022 07:28 8,2 C 7,8 C 4,4 C 92 % 1007,7 hPa 0,0 l/m 0 min 0 min 32 W/m 6,4 km/h (2 Bft) 95,74 %
22.04.2022 07:30 8,3 C 7,8 C 4,4 C 92 % 1007,7 hPa 0,0 l/m 0 min 0 min 32 W/m 9,7 km/h (2 Bft) 100,00 %
22.04.2022 07:32 8,3 C 7,8 C 4,4 C 92 % 1007,8 hPa 0,0 l/m 0 min 0 min 33 W/m 6,4 km/h (2 Bft) 97,83 %
22.04.2022 07:34 8,3 C 7,8 C 4,4 C 92 % 1007,8 hPa 0,0 l/m 0 min 0 min 34 W/m 12,9 km/h (3 Bft) 100,00 %
22.04.2022 07:36 8,4 C 7,8 C 4,4 C 92 % 1007,8 hPa 0,0 l/m 0 min 0 min 35 W/m 6,4 km/h (2 Bft) 97,87 %
22.04.2022 07:38 8,4 C 8,3 C 5,0 C 92 % 1007,8 hPa 0,0 l/m 0 min 0 min 36 W/m 9,7 km/h (2 Bft) 100,00 %
22.04.2022 07:40 8,5 C 8,3 C 5,0 C 92 % 1007,8 hPa 0,0 l/m 0 min 0 min 37 W/m 12,9 km/h (3 Bft) 97,87 %
22.04.2022 07:42 8,6 C 8,3 C 5,0 C 92 % 1007,8 hPa 0,0 l/m 0 min 0 min 39 W/m 9,7 km/h (2 Bft) 97,87 %
22.04.2022 07:44 8,6 C 8,3 C 5,0 C 92 % 1007,8 hPa 0,0 l/m 0 min 0 min 39 W/m 6,4 km/h (2 Bft) 97,83 %
22.04.2022 07:46 8,6 C 8,3 C 5,0 C 92 % 1007,8 hPa 0,0 l/m 0 min 0 min 41 W/m 6,4 km/h (2 Bft) 95,74 %
22.04.2022 07:48 8,7 C 8,3 C 5,0 C 92 % 1007,8 hPa 0,0 l/m 0 min 0 min 42 W/m 3,2 km/h (1 Bft) 97,87 %
22.04.2022 07:50 8,7 C 8,3 C 5,0 C 92 % 1007,8 hPa 0,0 l/m 0 min 0 min 45 W/m 9,7 km/h (2 Bft) 95,74 %
22.04.2022 07:52 8,8 C 8,3 C 5,0 C 92 % 1007,8 hPa 0,0 l/m 0 min 0 min 46 W/m 3,2 km/h (1 Bft) 97,87 %
22.04.2022 07:54 8,8 C 8,3 C 5,0 C 92 % 1007,8 hPa 0,0 l/m 0 min 0 min 47 W/m 3,2 km/h (1 Bft) 100,00 %
22.04.2022 07:56 8,8 C 8,3 C 5,0 C 92 % 1007,8 hPa 0,0 l/m 0 min 0 min 47 W/m 3,2 km/h (1 Bft) 97,87 %
22.04.2022 07:58 8,8 C 8,9 C 5,0 C 91 % 1007,8 hPa 0,0 l/m 0 min 0 min 47 W/m 9,7 km/h (2 Bft) 95,74 %
22.04.2022 08:00 8,9 C 8,9 C 5,0 C 91 % 1007,7 hPa 0,0 l/m 0 min 0 min 47 W/m 9,7 km/h (2 Bft) 95,74 %
22.04.2022 08:02 8,9 C 8,9 C 5,6 C 91 % 1007,7 hPa 0,0 l/m 0 min 0 min 48 W/m 9,7 km/h (2 Bft) 95,74 %
22.04.2022 08:04 8,9 C 8,9 C 5,6 C 91 % 1007,7 hPa 0,0 l/m 0 min 0 min 49 W/m 6,4 km/h (2 Bft) 95,74 %
22.04.2022 08:06 9,0 C 8,9 C 5,6 C 91 % 1007,7 hPa 0,0 l/m 0 min 0 min 49 W/m 6,4 km/h (2 Bft) 95,74 %
22.04.2022 08:08 9,1 C 8,9 C 5,6 C 91 % 1007,7 hPa 0,0 l/m 0 min 0 min 50 W/m 6,4 km/h (2 Bft) 91,30 %
22.04.2022 08:10 9,1 C 8,9 C 5,6 C 91 % 1007,7 hPa 0,0 l/m 0 min 0 min 53 W/m 6,4 km/h (2 Bft) 95,74 %
22.04.2022 08:12 9,2 C 8,9 C 5,6 C 91 % 1007,7 hPa 0,0 l/m 0 min 0 min 54 W/m 6,4 km/h (2 Bft) 87,23 %
22.04.2022 08:14 9,2 C 9,4 C 5,6 C 91 % 1007,7 hPa 0,0 l/m 0 min 0 min 57 W/m 9,7 km/h (2 Bft) 91,49 %
22.04.2022 08:16 9,3 C 9,4 C 5,6 C 91 % 1007,7 hPa 0,0 l/m 0 min 0 min 61 W/m 9,7 km/h (2 Bft) 93,62 %
22.04.2022 08:18 9,3 C 9,4 C 5,6 C 91 % 1007,7 hPa 0,0 l/m 0 min 0 min 62 W/m 12,9 km/h (3 Bft) 93,48 %
22.04.2022 08:20 9,3 C 9,4 C 5,6 C 91 % 1007,7 hPa 0,0 l/m 0 min 0 min 61 W/m 12,9 km/h (3 Bft) 91,49 %
22.04.2022 08:22 9,4 C 9,4 C 5,6 C 91 % 1007,7 hPa 0,0 l/m 0 min 0 min 61 W/m 12,9 km/h (3 Bft) 89,36 %
22.04.2022 08:24 9,5 C 9,4 C 6,1 C 90 % 1007,6 hPa 0,0 l/m 0 min 0 min 63 W/m 6,4 km/h (2 Bft) 95,74 %
22.04.2022 08:26 9,6 C 9,4 C 6,1 C 90 % 1007,7 hPa 0,0 l/m 0 min 0 min 71 W/m 9,7 km/h (2 Bft) 95,74 %
22.04.2022 08:28 9,6 C 9,4 C 6,1 C 90 % 1007,7 hPa 0,0 l/m 0 min 0 min 68 W/m 12,9 km/h (3 Bft) 95,74 %
22.04.2022 08:30 9,7 C 10,0 C 6,1 C 90 % 1007,6 hPa 0,0 l/m 0 min 0 min 62 W/m 12,9 km/h (3 Bft) 95,65 %
22.04.2022 08:32 9,7 C 10,0 C 6,1 C 90 % 1007,6 hPa 0,0 l/m 0 min 0 min 62 W/m 16,1 km/h (3 Bft) 97,87 %
22.04.2022 08:34 9,8 C 10,0 C 6,1 C 90 % 1007,6 hPa 0,0 l/m 0 min 0 min 63 W/m 9,7 km/h (2 Bft) 97,87 %
22.04.2022 08:36 9,9 C 10,0 C 6,1 C 90 % 1007,6 hPa 0,0 l/m 0 min 0 min 70 W/m 16,1 km/h (3 Bft) 100,00 %
22.04.2022 08:38 10,0 C 10,0 C 6,1 C 90 % 1007,6 hPa 0,0 l/m 0 min 0 min 164 W/m 16,1 km/h (3 Bft) 97,87 %
22.04.2022 08:40 10,1 C 10,0 C 6,7 C 89 % 1007,6 hPa 0,0 l/m 2 min 0 min 277 W/m 19,3 km/h (3 Bft) 97,87 %
22.04.2022 08:42 10,2 C 10,0 C 6,7 C 89 % 1007,6 hPa 0,0 l/m 2 min 0 min 286 W/m 12,9 km/h (3 Bft) 97,83 %
22.04.2022 08:44 10,3 C 10,6 C 6,7 C 89 % 1007,6 hPa 0,0 l/m 2 min 0 min 286 W/m 16,1 km/h (3 Bft) 97,87 %
22.04.2022 08:46 10,4 C 10,6 C 6,7 C 89 % 1007,6 hPa 0,0 l/m 2 min 0 min 305 W/m 9,7 km/h (2 Bft) 97,87 %
22.04.2022 08:48 10,5 C 10,6 C 6,7 C 88 % 1007,5 hPa 0,0 l/m 2 min 0 min 301 W/m 22,5 km/h (4 Bft) 93,62 %
22.04.2022 08:50 10,6 C 10,6 C 6,7 C 88 % 1007,6 hPa 0,0 l/m 2 min 0 min 306 W/m 12,9 km/h (3 Bft) 97,87 %
22.04.2022 08:52 10,7 C 11,1 C 7,2 C 88 % 1007,5 hPa 0,0 l/m 2 min 0 min 315 W/m 19,3 km/h (3 Bft) 95,74 %
22.04.2022 08:54 10,8 C 12,2 C 7,2 C 88 % 1007,5 hPa 0,0 l/m 2 min 0 min 328 W/m 16,1 km/h (3 Bft) 97,83 %
22.04.2022 08:56 10,9 C 13,3 C 7,2 C 87 % 1007,5 hPa 0,0 l/m 2 min 0 min 324 W/m 16,1 km/h (3 Bft) 100,00 %
22.04.2022 08:58 11,0 C 13,3 C 7,2 C 87 % 1007,5 hPa 0,0 l/m 0 min 0 min 142 W/m 19,3 km/h (3 Bft) 100,00 %
22.04.2022 09:00 11,1 C 13,3 C 7,2 C 86 % 1007,5 hPa 0,0 l/m 2 min 0 min 338 W/m 12,9 km/h (3 Bft) 100,00 %
22.04.2022 09:02 11,1 C 12,8 C 7,2 C 86 % 1007,5 hPa 0,0 l/m 0 min 0 min 127 W/m 22,5 km/h (4 Bft) 97,87 %
22.04.2022 09:04 11,1 C 12,2 C 6,7 C 86 % 1007,6 hPa 0,0 l/m 0 min 0 min 82 W/m 22,5 km/h (4 Bft) 97,83 %
22.04.2022 09:06 11,1 C 11,7 C 6,7 C 85 % 1007,5 hPa 0,0 l/m 0 min 0 min 96 W/m 16,1 km/h (3 Bft) 100,00 %
22.04.2022 09:08 11,1 C 11,7 C 6,7 C 85 % 1007,5 hPa 0,0 l/m 0 min 0 min 114 W/m 22,5 km/h (4 Bft) 100,00 %
22.04.2022 09:10 11,0 C 11,7 C 7,2 C 85 % 1007,6 hPa 0,0 l/m 0 min 0 min 144 W/m 16,1 km/h (3 Bft) 100,00 %
22.04.2022 09:12 11,0 C 11,1 C 7,2 C 86 % 1007,5 hPa 0,0 l/m 0 min 0 min 144 W/m 16,1 km/h (3 Bft) 100,00 %
22.04.2022 09:14 11,0 C 11,1 C 7,2 C 86 % 1007,5 hPa 0,0 l/m 0 min 0 min 126 W/m 12,9 km/h (3 Bft) 100,00 %
22.04.2022 09:16 11,0 C 11,1 C 7,2 C 86 % 1007,5 hPa 0,0 l/m 0 min 0 min 114 W/m 9,7 km/h (2 Bft) 100,00 %
22.04.2022 09:18 11,0 C 11,1 C 7,2 C 86 % 1007,5 hPa 0,0 l/m 0 min 0 min 106 W/m 9,7 km/h (2 Bft) 100,00 %
22.04.2022 09:20 10,9 C 11,1 C 7,2 C 86 % 1007,5 hPa 0,0 l/m 0 min 0 min 106 W/m 12,9 km/h (3 Bft) 100,00 %
22.04.2022 09:22 10,9 C 11,1 C 7,2 C 86 % 1007,4 hPa 0,0 l/m 0 min 0 min 106 W/m 12,9 km/h (3 Bft) 97,87 %
22.04.2022 09:24 10,9 C 11,1 C 7,2 C 86 % 1007,4 hPa 0,0 l/m 0 min 0 min 106 W/m 6,4 km/h (2 Bft) 100,00 %
22.04.2022 09:26 10,9 C 11,1 C 7,2 C 86 % 1007,4 hPa 0,0 l/m 0 min 0 min 123 W/m 16,1 km/h (3 Bft) 100,00 %
22.04.2022 09:28 10,9 C 11,1 C 7,2 C 86 % 1007,4 hPa 0,0 l/m 0 min 0 min 155 W/m 12,9 km/h (3 Bft) 100,00 %
22.04.2022 09:30 11,0 C 11,1 C 7,2 C 86 % 1007,5 hPa 0,0 l/m 0 min 0 min 181 W/m 12,9 km/h (3 Bft) 100,00 %
22.04.2022 09:32 11,1 C 11,7 C 7,2 C 86 % 1007,4 hPa 0,0 l/m 0 min 0 min 180 W/m 9,7 km/h (2 Bft) 100,00 %
22.04.2022 09:34 11,1 C 11,7 C 7,8 C 86 % 1007,3 hPa 0,0 l/m 0 min 0 min 166 W/m 16,1 km/h (3 Bft) 100,00 %
22.04.2022 09:36 11,1 C 11,1 C 7,2 C 86 % 1007,3 hPa 0,0 l/m 0 min 0 min 154 W/m 19,3 km/h (3 Bft) 100,00 %
22.04.2022 09:38 11,1 C 11,1 C 7,2 C 86 % 1007,2 hPa 0,0 l/m 0 min 0 min 148 W/m 22,5 km/h (4 Bft) 97,87 %
22.04.2022 09:40 11,2 C 11,1 C 7,2 C 86 % 1007,3 hPa 0,0 l/m 0 min 0 min 142 W/m 19,3 km/h (3 Bft) 100,00 %
22.04.2022 09:42 11,2 C 11,1 C 7,2 C 86 % 1007,2 hPa 0,0 l/m 0 min 0 min 146 W/m 22,5 km/h (4 Bft) 100,00 %
22.04.2022 09:44 11,2 C 11,7 C 7,8 C 85 % 1007,1 hPa 0,0 l/m 0 min 0 min 147 W/m 12,9 km/h (3 Bft) 100,00 %
22.04.2022 09:46 11,2 C 12,2 C 7,8 C 85 % 1007,1 hPa 0,0 l/m 0 min 0 min 149 W/m 12,9 km/h (3 Bft) 100,00 %
22.04.2022 09:48 11,3 C 13,3 C 7,8 C 85 % 1007,1 hPa 0,0 l/m 0 min 0 min 149 W/m 12,9 km/h (3 Bft) 100,00 %
22.04.2022 09:50 11,4 C 13,3 C 7,8 C 85 % 1007,2 hPa 0,0 l/m 0 min 0 min 172 W/m 16,1 km/h (3 Bft) 100,00 %
22.04.2022 09:52 11,5 C 12,8 C 7,8 C 85 % 1007,2 hPa 0,0 l/m 0 min 0 min 168 W/m 16,1 km/h (3 Bft) 93,48 %
22.04.2022 09:54 11,6 C 12,8 C 7,8 C 84 % 1007,3 hPa 0,0 l/m 0 min 0 min 198 W/m 9,7 km/h (2 Bft) 100,00 %
22.04.2022 09:56 11,6 C 13,3 C 8,3 C 84 % 1007,2 hPa 0,0 l/m 0 min 0 min 233 W/m 16,1 km/h (3 Bft) 100,00 %
22.04.2022 09:58 11,8 C 15,0 C 8,9 C 84 % 1007,2 hPa 0,0 l/m 2 min 0 min 357 W/m 12,9 km/h (3 Bft) 95,74 %
22.04.2022 10:00 12,0 C 16,1 C 8,9 C 84 % 1007,3 hPa 0,0 l/m 0 min 0 min 236 W/m 16,1 km/h (3 Bft) 100,00 %
22.04.2022 10:02 12,2 C 17,2 C 8,9 C 83 % 1007,2 hPa 0,0 l/m 0 min 0 min 184 W/m 19,3 km/h (3 Bft) 95,65 %
22.04.2022 10:04 12,4 C 18,3 C 8,9 C 83 % 1007,3 hPa 0,0 l/m 0 min 0 min 140 W/m 19,3 km/h (3 Bft) 100,00 %
22.04.2022 10:06 12,6 C 18,9 C 8,9 C 82 % 1007,2 hPa 0,0 l/m 0 min 0 min 157 W/m 22,5 km/h (4 Bft) 100,00 %
22.04.2022 10:08 12,8 C 18,9 C 9,4 C 81 % 1007,3 hPa 0,0 l/m 0 min 0 min 218 W/m 16,1 km/h (3 Bft) 97,87 %
22.04.2022 10:10 12,9 C 17,8 C 9,4 C 80 % 1007,3 hPa 0,0 l/m 0 min 0 min 227 W/m 22,5 km/h (4 Bft) 95,74 %
22.04.2022 10:12 12,9 C 16,1 C 9,4 C 78 % 1007,3 hPa 0,0 l/m 0 min 0 min 187 W/m 19,3 km/h (3 Bft) 97,87 %
22.04.2022 10:14 12,9 C 15,0 C 8,9 C 78 % 1007,3 hPa 0,0 l/m 0 min 0 min 182 W/m 16,1 km/h (3 Bft) 97,83 %
22.04.2022 10:16 12,8 C 14,4 C 8,9 C 78 % 1007,2 hPa 0,0 l/m 0 min 0 min 178 W/m 16,1 km/h (3 Bft) 97,87 %
22.04.2022 10:18 12,8 C 13,9 C 8,9 C 78 % 1007,3 hPa 0,0 l/m 0 min 0 min 183 W/m 16,1 km/h (3 Bft) 97,87 %
22.04.2022 10:20 12,8 C 13,9 C 8,9 C 78 % 1007,2 hPa 0,0 l/m 0 min 0 min 178 W/m 16,1 km/h (3 Bft) 95,74 %
22.04.2022 10:22 12,7 C 13,3 C 8,9 C 78 % 1007,2 hPa 0,0 l/m 0 min 0 min 163 W/m 16,1 km/h (3 Bft) 97,87 %
22.04.2022 10:24 12,7 C 12,8 C 8,9 C 77 % 1007,2 hPa 0,0 l/m 0 min 0 min 133 W/m 25,7 km/h (4 Bft) 97,92 %
22.04.2022 10:26 12,6 C 12,8 C 8,3 C 77 % 1007,2 hPa 0,0 l/m 0 min 0 min 133 W/m 22,5 km/h (4 Bft) 95,65 %
22.04.2022 10:28 12,6 C 12,2 C 8,3 C 78 % 1007,3 hPa 0,0 l/m 0 min 0 min 151 W/m 16,1 km/h (3 Bft) 97,96 %
22.04.2022 10:30 12,6 C 12,8 C 8,9 C 78 % 1007,3 hPa 0,0 l/m 0 min 0 min 161 W/m 9,7 km/h (2 Bft) 95,74 %
22.04.2022 10:32 12,6 C 12,8 C 8,9 C 78 % 1007,3 hPa 0,0 l/m 0 min 0 min 188 W/m 16,1 km/h (3 Bft) 93,62 %
22.04.2022 10:34 12,6 C 12,8 C 8,9 C 78 % 1007,4 hPa 0,0 l/m 0 min 0 min 185 W/m 16,1 km/h (3 Bft) 97,87 %
22.04.2022 10:36 12,6 C 12,8 C 8,9 C 78 % 1007,2 hPa 0,0 l/m 0 min 0 min 175 W/m 12,9 km/h (3 Bft) 97,83 %
22.04.2022 10:38 12,6 C 12,8 C 8,9 C 77 % 1007,2 hPa 0,0 l/m 0 min 0 min 162 W/m 19,3 km/h (3 Bft) 97,87 %
22.04.2022 10:40 12,6 C 12,8 C 8,9 C 76 % 1007,2 hPa 0,0 l/m 0 min 0 min 157 W/m 19,3 km/h (3 Bft) 95,74 %
22.04.2022 10:42 12,6 C 12,8 C 8,9 C 76 % 1007,2 hPa 0,0 l/m 0 min 0 min 180 W/m 19,3 km/h (3 Bft) 97,87 %
22.04.2022 10:44 12,7 C 12,8 C 8,9 C 77 % 1007,2 hPa 0,0 l/m 0 min 0 min 204 W/m 16,1 km/h (3 Bft) 100,00 %
22.04.2022 10:46 12,7 C 12,8 C 8,9 C 77 % 1007,2 hPa 0,0 l/m 0 min 0 min 206 W/m 12,9 km/h (3 Bft) 95,74 %
22.04.2022 10:48 12,7 C 13,3 C 8,9 C 77 % 1007,1 hPa 0,0 l/m 0 min 0 min 192 W/m 22,5 km/h (4 Bft) 95,74 %
22.04.2022 10:50 12,8 C 13,3 C 8,9 C 77 % 1007,1 hPa 0,0 l/m 0 min 0 min 218 W/m 12,9 km/h (3 Bft) 95,74 %
22.04.2022 10:52 12,8 C 14,4 C 9,4 C 78 % 1007,1 hPa 0,0 l/m 0 min 0 min 236 W/m 19,3 km/h (3 Bft) 93,48 %
22.04.2022 10:54 12,9 C 15,0 C 10,0 C 78 % 1007,2 hPa 0,0 l/m 0 min 0 min 236 W/m 19,3 km/h (3 Bft) 95,74 %
22.04.2022 10:56 13,2 C 15,6 C 10,6 C 77 % 1007,1 hPa 0,0 l/m 2 min 0 min 323 W/m 12,9 km/h (3 Bft) 97,87 %
22.04.2022 10:58 13,4 C 16,1 C 10,6 C 76 % 1007,0 hPa 0,0 l/m 2 min 0 min 759 W/m 12,9 km/h (3 Bft) 95,74 %
22.04.2022 11:00 13,7 C 16,7 C 10,6 C 76 % 1007,0 hPa 0,0 l/m 2 min 0 min 718 W/m 22,5 km/h (4 Bft) 95,74 %
22.04.2022 11:02 13,9 C 16,7 C 10,6 C 75 % 1007,0 hPa 0,0 l/m 2 min 0 min 691 W/m 22,5 km/h (4 Bft) 95,65 %
22.04.2022 11:04 14,2 C 16,7 C 10,6 C 74 % 1007,0 hPa 0,0 l/m 2 min 0 min 681 W/m 25,7 km/h (4 Bft) 95,74 %
22.04.2022 11:06 14,3 C 16,7 C 10,6 C 73 % 1007,0 hPa 0,0 l/m 2 min 0 min 689 W/m 16,1 km/h (3 Bft) 95,74 %
22.04.2022 11:08 14,3 C 16,7 C 10,6 C 72 % 1007,0 hPa 0,0 l/m 2 min 0 min 695 W/m 25,7 km/h (4 Bft) 93,22 %
22.04.2022 11:10 14,4 C 16,7 C 10,6 C 72 % 1006,9 hPa 0,0 l/m 2 min 0 min 695 W/m 22,5 km/h (4 Bft) 94,29 %
22.04.2022 11:12 14,5 C 16,1 C 10,6 C 72 % 1006,9 hPa 0,0 l/m 2 min 0 min 692 W/m 16,1 km/h (3 Bft) 95,74 %
22.04.2022 11:14 14,6 C 16,7 C 11,1 C 72 % 1006,9 hPa 0,0 l/m 2 min 0 min 697 W/m 19,3 km/h (3 Bft) 95,65 %
22.04.2022 11:16 14,7 C 16,7 C 11,1 C 71 % 1006,9 hPa 0,0 l/m 2 min 0 min 706 W/m 25,7 km/h (4 Bft) 95,74 %
22.04.2022 11:18 14,8 C 16,7 C 11,1 C 69 % 1006,9 hPa 0,0 l/m 2 min 0 min 713 W/m 32,2 km/h (5 Bft) 95,74 %
22.04.2022 11:20 14,9 C 16,7 C 11,1 C 69 % 1006,8 hPa 0,0 l/m 2 min 0 min 718 W/m 29,0 km/h (5 Bft) 93,62 %
22.04.2022 11:22 15,1 C 17,2 C 11,1 C 69 % 1006,8 hPa 0,0 l/m 2 min 0 min 727 W/m 19,3 km/h (3 Bft) 95,74 %
22.04.2022 11:24 15,2 C 18,3 C 11,7 C 70 % 1006,8 hPa 0,0 l/m 2 min 0 min 730 W/m 19,3 km/h (3 Bft) 95,74 %
22.04.2022 11:26 15,4 C 18,9 C 11,7 C 68 % 1006,8 hPa 0,0 l/m 2 min 0 min 738 W/m 16,1 km/h (3 Bft) 95,65 %
22.04.2022 11:28 15,4 C 18,9 C 12,2 C 67 % 1006,8 hPa 0,0 l/m 2 min 0 min 742 W/m 22,5 km/h (4 Bft) 91,49 %
22.04.2022 11:30 15,5 C 18,3 C 12,2 C 66 % 1006,8 hPa 0,0 l/m 2 min 0 min 752 W/m 19,3 km/h (3 Bft) 97,87 %
22.04.2022 11:32 15,6 C 18,9 C 12,2 C 67 % 1006,8 hPa 0,0 l/m 2 min 0 min 758 W/m 25,7 km/h (4 Bft) 97,87 %
22.04.2022 11:34 15,6 C 18,9 C 12,2 C 66 % 1006,7 hPa 0,0 l/m 2 min 0 min 771 W/m 19,3 km/h (3 Bft) 97,87 %
22.04.2022 11:36 15,7 C 18,3 C 12,2 C 66 % 1006,9 hPa 0,0 l/m 2 min 0 min 780 W/m 19,3 km/h (3 Bft) 97,87 %
22.04.2022 11:38 15,6 C 18,9 C 12,2 C 65 % 1006,7 hPa 0,0 l/m 2 min 0 min 774 W/m 19,3 km/h (3 Bft) 97,83 %
22.04.2022 11:40 15,7 C 18,9 C 12,8 C 67 % 1006,7 hPa 0,0 l/m 2 min 0 min 768 W/m 22,5 km/h (4 Bft) 97,87 %
22.04.2022 11:42 15,7 C 18,3 C 12,8 C 66 % 1006,8 hPa 0,0 l/m 2 min 0 min 775 W/m 35,4 km/h (5 Bft) 95,74 %
22.04.2022 11:44 15,8 C 18,9 C 13,3 C 66 % 1006,6 hPa 0,0 l/m 2 min 0 min 778 W/m 25,7 km/h (4 Bft) 95,74 %
22.04.2022 11:46 15,9 C 18,9 C 13,9 C 66 % 1006,6 hPa 0,0 l/m 2 min 0 min 786 W/m 25,7 km/h (4 Bft) 93,62 %
22.04.2022 11:48 16,0 C 18,9 C 14,4 C 66 % 1006,6 hPa 0,0 l/m 2 min 0 min 777 W/m 19,3 km/h (3 Bft) 95,74 %
22.04.2022 11:50 16,1 C 18,9 C 14,4 C 65 % 1006,6 hPa 0,0 l/m 2 min 0 min 769 W/m 12,9 km/h (3 Bft) 97,83 %
22.04.2022 11:52 16,1 C 18,9 C 14,4 C 65 % 1006,6 hPa 0,0 l/m 2 min 0 min 788 W/m 22,5 km/h (4 Bft) 95,74 %
22.04.2022 11:54 16,2 C 18,9 C 14,4 C 65 % 1006,5 hPa 0,0 l/m 2 min 0 min 794 W/m 19,3 km/h (3 Bft) 97,87 %
22.04.2022 11:56 16,2 C 19,4 C 13,9 C 64 % 1006,4 hPa 0,0 l/m 2 min 0 min 856 W/m 16,1 km/h (3 Bft) 97,87 %
22.04.2022 11:58 16,2 C 19,4 C 13,9 C 65 % 1006,4 hPa 0,0 l/m 2 min 0 min 837 W/m 22,5 km/h (4 Bft) 97,87 %
22.04.2022 12:00 16,3 C 20,0 C 14,4 C 65 % 1006,4 hPa 0,0 l/m 2 min 0 min 879 W/m 19,3 km/h (3 Bft) 97,83 %
22.04.2022 12:02 16,3 C 19,4 C 15,0 C 65 % 1006,4 hPa 0,0 l/m 2 min 0 min 879 W/m 25,7 km/h (4 Bft) 95,74 %
22.04.2022 12:04 16,3 C 18,9 C 14,4 C 65 % 1006,4 hPa 0,0 l/m 2 min 0 min 878 W/m 25,7 km/h (4 Bft) 95,74 %
22.04.2022 12:08 16,3 C 19,4 C 13,9 C 65 % 1006,3 hPa 0,0 l/m 4 min 0 min 861 W/m 25,7 km/h (4 Bft) 96,81 %
22.04.2022 12:10 16,2 C 18,3 C 13,9 C 65 % 1006,3 hPa 0,0 l/m 2 min 0 min 881 W/m 25,7 km/h (4 Bft) 95,74 %
22.04.2022 12:12 16,2 C 18,3 C 13,3 C 65 % 1006,3 hPa 0,0 l/m 0 min 0 min 183 W/m 16,1 km/h (3 Bft) 95,65 %
22.04.2022 12:14 16,1 C 18,3 C 13,3 C 65 % 1006,3 hPa 0,0 l/m 0 min 0 min 275 W/m 22,5 km/h (4 Bft) 95,74 %
22.04.2022 12:16 16,1 C 18,9 C 13,3 C 65 % 1006,3 hPa 0,0 l/m 0 min 0 min 320 W/m 19,3 km/h (3 Bft) 95,74 %
22.04.2022 12:18 16,1 C 18,3 C 13,3 C 65 % 1006,2 hPa 0,0 l/m 2 min 0 min 954 W/m 29,0 km/h (5 Bft) 97,87 %
22.04.2022 12:20 15,9 C 18,3 C 12,8 C 65 % 1006,2 hPa 0,0 l/m 2 min 0 min 439 W/m 19,3 km/h (3 Bft) 97,87 %
22.04.2022 12:22 15,9 C 17,8 C 12,8 C 66 % 1006,2 hPa 0,0 l/m 0 min 0 min 248 W/m 19,3 km/h (3 Bft) 97,87 %
22.04.2022 12:24 15,8 C 17,8 C 12,8 C 66 % 1006,2 hPa 0,0 l/m 0 min 0 min 239 W/m 25,7 km/h (4 Bft) 97,83 %
22.04.2022 12:26 15,7 C 16,7 C 12,2 C 65 % 1006,2 hPa 0,0 l/m 0 min 0 min 221 W/m 32,2 km/h (5 Bft) 97,87 %
22.04.2022 12:28 15,6 C 16,1 C 11,7 C 65 % 1006,1 hPa 0,0 l/m 0 min 0 min 230 W/m 22,5 km/h (4 Bft) 97,87 %
22.04.2022 12:30 15,4 C 15,6 C 11,1 C 65 % 1006,2 hPa 0,0 l/m 0 min 0 min 241 W/m 32,2 km/h (5 Bft) 97,87 %
22.04.2022 12:32 15,3 C 16,7 C 13,3 C 67 % 1006,2 hPa 0,0 l/m 0 min 0 min 248 W/m 22,5 km/h (4 Bft) 97,87 %
22.04.2022 12:34 15,4 C 17,2 C 13,3 C 67 % 1006,2 hPa 0,0 l/m 0 min 0 min 250 W/m 25,7 km/h (4 Bft) 97,87 %
22.04.2022 12:36 15,4 C 17,2 C 12,8 C 67 % 1006,2 hPa 0,0 l/m 0 min 0 min 265 W/m 16,1 km/h (3 Bft) 98,28 %
22.04.2022 12:38 15,4 C 16,7 C 12,2 C 67 % 1006,2 hPa 0,0 l/m 0 min 0 min 280 W/m 19,3 km/h (3 Bft) 94,29 %
22.04.2022 12:40 15,3 C 16,1 C 12,2 C 66 % 1006,2 hPa 0,0 l/m 0 min 0 min 331 W/m 38,6 km/h (5 Bft) 97,87 %
22.04.2022 12:42 15,3 C 16,1 C 11,7 C 66 % 1006,2 hPa 0,0 l/m 0 min 0 min 272 W/m 12,9 km/h (3 Bft) 97,87 %
22.04.2022 12:44 15,2 C 16,1 C 11,7 C 67 % 1006,2 hPa 0,0 l/m 0 min 0 min 294 W/m 19,3 km/h (3 Bft) 100,00 %
22.04.2022 12:46 15,2 C 16,7 C 12,2 C 68 % 1006,2 hPa 0,0 l/m 0 min 0 min 335 W/m 19,3 km/h (3 Bft) 100,00 %
22.04.2022 12:48 15,2 C 17,2 C 12,8 C 67 % 1006,2 hPa 0,0 l/m 0 min 0 min 369 W/m 16,1 km/h (3 Bft) 100,00 %
22.04.2022 12:50 15,3 C 18,3 C 12,8 C 68 % 1006,2 hPa 0,0 l/m 0 min 0 min 369 W/m 16,1 km/h (3 Bft) 95,74 %
22.04.2022 12:52 15,4 C 18,3 C 12,8 C 68 % 1006,2 hPa 0,0 l/m 0 min 0 min 369 W/m 19,3 km/h (3 Bft) 100,00 %
22.04.2022 12:54 15,5 C 17,8 C 12,8 C 68 % 1006,1 hPa 0,0 l/m 0 min 0 min 354 W/m 29,0 km/h (5 Bft) 100,00 %
22.04.2022 12:56 15,6 C 18,3 C 12,8 C 67 % 1006,0 hPa 0,0 l/m 0 min 0 min 360 W/m 19,3 km/h (3 Bft) 100,00 %
22.04.2022 12:58 15,7 C 19,4 C 12,8 C 67 % 1006,0 hPa 0,0 l/m 2 min 0 min 604 W/m 16,1 km/h (3 Bft) 100,00 %
22.04.2022 13:00 15,9 C 19,4 C 13,3 C 66 % 1006,1 hPa 0,0 l/m 2 min 0 min 1038 W/m 22,5 km/h (4 Bft) 97,87 %
22.04.2022 13:02 16,1 C 18,9 C 12,8 C 65 % 1006,1 hPa 0,0 l/m 2 min 0 min 1023 W/m 16,1 km/h (3 Bft) 97,87 %
22.04.2022 13:04 16,2 C 18,3 C 12,8 C 65 % 1006,1 hPa 0,0 l/m 0 min 0 min 351 W/m 19,3 km/h (3 Bft) 100,00 %
22.04.2022 13:06 16,2 C 18,3 C 12,8 C 65 % 1006,0 hPa 0,0 l/m 0 min 0 min 328 W/m 12,9 km/h (3 Bft) 97,87 %
22.04.2022 13:08 16,2 C 18,3 C 12,8 C 65 % 1006,1 hPa 0,0 l/m 0 min 0 min 352 W/m 16,1 km/h (3 Bft) 100,00 %
22.04.2022 13:10 16,2 C 17,8 C 12,8 C 65 % 1006,0 hPa 0,0 l/m 0 min 0 min 318 W/m 19,3 km/h (3 Bft) 100,00 %
22.04.2022 13:12 16,2 C 17,8 C 12,8 C 64 % 1006,0 hPa 0,0 l/m 0 min 0 min 327 W/m 16,1 km/h (3 Bft) 100,00 %
22.04.2022 13:14 16,1 C 17,2 C 12,8 C 65 % 1006,0 hPa 0,0 l/m 0 min 0 min 347 W/m 12,9 km/h (3 Bft) 100,00 %
22.04.2022 13:16 16,1 C 17,8 C 12,2 C 65 % 1006,0 hPa 0,0 l/m 0 min 0 min 337 W/m 16,1 km/h (3 Bft) 100,00 %
22.04.2022 13:18 16,0 C 17,2 C 12,2 C 65 % 1006,0 hPa 0,0 l/m 0 min 0 min 341 W/m 19,3 km/h (3 Bft) 100,00 %
22.04.2022 13:20 16,0 C 17,2 C 12,8 C 65 % 1005,9 hPa 0,0 l/m 2 min 0 min 393 W/m 19,3 km/h (3 Bft) 97,83 %
22.04.2022 13:22 16,0 C 17,8 C 12,8 C 65 % 1005,9 hPa 0,0 l/m 0 min 0 min 366 W/m 9,7 km/h (2 Bft) 100,00 %
22.04.2022 13:24 16,0 C 17,8 C 12,8 C 65 % 1005,8 hPa 0,0 l/m 2 min 0 min 407 W/m 22,5 km/h (4 Bft) 97,87 %
22.04.2022 13:26 16,1 C 18,9 C 12,8 C 66 % 1005,8 hPa 0,0 l/m 2 min 0 min 449 W/m 12,9 km/h (3 Bft) 100,00 %
22.04.2022 13:28 16,2 C 18,3 C 12,8 C 65 % 1005,7 hPa 0,0 l/m 0 min 0 min 269 W/m 19,3 km/h (3 Bft) 97,87 %
22.04.2022 13:30 16,2 C 18,3 C 12,8 C 64 % 1005,7 hPa 0,0 l/m 0 min 0 min 297 W/m 19,3 km/h (3 Bft) 97,87 %
22.04.2022 13:32 16,1 C 18,3 C 12,8 C 64 % 1005,7 hPa 0,0 l/m 2 min 0 min 669 W/m 19,3 km/h (3 Bft) 97,83 %
22.04.2022 13:34 16,1 C 18,3 C 12,8 C 63 % 1005,7 hPa 0,0 l/m 0 min 0 min 318 W/m 12,9 km/h (3 Bft) 97,87 %
22.04.2022 13:36 16,1 C 17,8 C 12,8 C 64 % 1005,7 hPa 0,0 l/m 0 min 0 min 332 W/m 19,3 km/h (3 Bft) 97,87 %
22.04.2022 13:38 16,0 C 17,2 C 12,8 C 64 % 1005,7 hPa 0,0 l/m 0 min 0 min 359 W/m 22,5 km/h (4 Bft) 95,74 %
22.04.2022 13:40 16,1 C 18,9 C 13,3 C 65 % 1005,7 hPa 0,0 l/m 2 min 0 min 497 W/m 16,1 km/h (3 Bft) 98,00 %
22.04.2022 13:42 16,2 C 19,4 C 13,9 C 65 % 1005,7 hPa 0,0 l/m 2 min 0 min 969 W/m 19,3 km/h (3 Bft) 95,65 %
22.04.2022 13:44 16,3 C 18,9 C 13,9 C 64 % 1005,6 hPa 0,0 l/m 0 min 0 min 332 W/m 16,1 km/h (3 Bft) 97,96 %
22.04.2022 13:46 16,4 C 18,3 C 13,3 C 65 % 1005,6 hPa 0,0 l/m 0 min 0 min 294 W/m 16,1 km/h (3 Bft) 97,87 %
22.04.2022 13:48 16,4 C 17,8 C 12,8 C 64 % 1005,6 hPa 0,0 l/m 0 min 0 min 253 W/m 16,1 km/h (3 Bft) 95,74 %
22.04.2022 13:50 16,3 C 17,2 C 12,2 C 64 % 1005,6 hPa 0,0 l/m 0 min 0 min 246 W/m 25,7 km/h (4 Bft) 97,87 %
22.04.2022 13:52 16,2 C 16,7 C 12,2 C 64 % 1005,6 hPa 0,0 l/m 0 min 0 min 276 W/m 19,3 km/h (3 Bft) 97,87 %
22.04.2022 13:54 16,1 C 16,7 C 12,2 C 64 % 1005,6 hPa 0,0 l/m 0 min 0 min 302 W/m 19,3 km/h (3 Bft) 97,83 %
22.04.2022 13:56 16,1 C 16,7 C 12,2 C 64 % 1005,6 hPa 0,0 l/m 0 min 0 min 345 W/m 19,3 km/h (3 Bft) 97,87 %
22.04.2022 13:58 16,1 C 17,2 C 12,8 C 65 % 1005,6 hPa 0,0 l/m 2 min 0 min 381 W/m 9,7 km/h (2 Bft) 93,62 %
22.04.2022 14:00 16,1 C 18,3 C 12,8 C 65 % 1005,6 hPa 0,0 l/m 2 min 0 min 605 W/m 16,1 km/h (3 Bft) 97,87 %
22.04.2022 14:02 16,2 C 18,3 C 12,8 C 65 % 1005,5 hPa 0,0 l/m 2 min 0 min 486 W/m 16,1 km/h (3 Bft) 93,62 %
22.04.2022 14:04 16,3 C 17,8 C 12,8 C 65 % 1005,5 hPa 0,0 l/m 0 min 0 min 284 W/m 16,1 km/h (3 Bft) 97,87 %
22.04.2022 14:06 16,3 C 17,2 C 12,8 C 63 % 1005,5 hPa 0,0 l/m 0 min 0 min 314 W/m 16,1 km/h (3 Bft) 95,65 %
22.04.2022 14:08 16,2 C 17,2 C 12,8 C 64 % 1005,5 hPa 0,0 l/m 0 min 0 min 310 W/m 29,0 km/h (5 Bft) 95,74 %
22.04.2022 14:10 16,2 C 16,7 C 12,2 C 63 % 1005,5 hPa 0,0 l/m 0 min 0 min 278 W/m 35,4 km/h (5 Bft) 95,74 %
22.04.2022 14:12 16,1 C 17,2 C 12,2 C 64 % 1005,5 hPa 0,0 l/m 0 min 0 min 273 W/m 16,1 km/h (3 Bft) 95,74 %
22.04.2022 14:14 16,1 C 17,2 C 12,2 C 64 % 1005,4 hPa 0,0 l/m 0 min 0 min 310 W/m 22,5 km/h (4 Bft) 93,62 %
22.04.2022 14:16 16,2 C 17,8 C 12,2 C 64 % 1005,3 hPa 0,0 l/m 2 min 0 min 418 W/m 25,7 km/h (4 Bft) 95,74 %
22.04.2022 14:18 16,2 C 17,8 C 12,8 C 64 % 1005,4 hPa 0,0 l/m 0 min 0 min 333 W/m 22,5 km/h (4 Bft) 97,83 %
22.04.2022 14:20 16,3 C 18,3 C 12,8 C 64 % 1005,3 hPa 0,0 l/m 0 min 0 min 349 W/m 16,1 km/h (3 Bft) 97,87 %
22.04.2022 14:22 16,4 C 19,4 C 13,3 C 64 % 1005,2 hPa 0,0 l/m 2 min 0 min 536 W/m 25,7 km/h (4 Bft) 97,87 %
22.04.2022 14:24 16,7 C 20,6 C 13,3 C 64 % 1005,2 hPa 0,0 l/m 2 min 0 min 956 W/m 19,3 km/h (3 Bft) 97,87 %
22.04.2022 14:26 16,9 C 21,1 C 13,3 C 64 % 1005,3 hPa 0,0 l/m 2 min 0 min 455 W/m 16,1 km/h (3 Bft) 95,74 %
22.04.2022 14:28 17,1 C 21,1 C 13,3 C 63 % 1005,2 hPa 0,0 l/m 2 min 0 min 889 W/m 16,1 km/h (3 Bft) 95,74 %
22.04.2022 14:30 17,2 C 20,0 C 13,3 C 62 % 1005,4 hPa 0,0 l/m 2 min 0 min 905 W/m 25,7 km/h (4 Bft) 95,65 %
22.04.2022 14:32 17,2 C 19,4 C 13,3 C 63 % 1005,2 hPa 0,0 l/m 0 min 0 min 251 W/m 29,0 km/h (5 Bft) 93,62 %
22.04.2022 14:34 17,2 C 18,9 C 12,8 C 62 % 1005,2 hPa 0,0 l/m 0 min 0 min 247 W/m 25,7 km/h (4 Bft) 97,87 %
22.04.2022 14:36 17,2 C 20,0 C 13,3 C 63 % 1005,2 hPa 0,0 l/m 2 min 0 min 789 W/m 35,4 km/h (5 Bft) 97,87 %
22.04.2022 14:38 17,3 C 20,0 C 13,3 C 63 % 1005,1 hPa 0,0 l/m 2 min 0 min 898 W/m 19,3 km/h (3 Bft) 97,87 %
22.04.2022 14:40 17,3 C 19,4 C 13,3 C 63 % 1005,1 hPa 0,0 l/m 2 min 0 min 456 W/m 25,7 km/h (4 Bft) 97,83 %
22.04.2022 14:42 17,2 C 19,4 C 12,8 C 63 % 1005,0 hPa 0,0 l/m 0 min 0 min 262 W/m 25,7 km/h (4 Bft) 95,74 %
22.04.2022 14:44 17,2 C 19,4 C 12,8 C 63 % 1005,0 hPa 0,0 l/m 2 min 0 min 368 W/m 16,1 km/h (3 Bft) 97,87 %
22.04.2022 14:46 17,1 C 18,9 C 12,8 C 62 % 1005,1 hPa 0,0 l/m 2 min 0 min 628 W/m 25,7 km/h (4 Bft) 100,00 %
22.04.2022 14:48 16,7 C 18,9 C 12,8 C 63 % 1005,0 hPa 0,0 l/m 2 min 0 min 701 W/m 16,1 km/h (3 Bft) 100,00 %
22.04.2022 14:50 16,4 C 17,8 C 12,8 C 64 % 1005,0 hPa 0,0 l/m 0 min 0 min 261 W/m 35,4 km/h (5 Bft) 100,00 %
22.04.2022 14:52 16,2 C 17,8 C 12,2 C 65 % 1005,0 hPa 0,0 l/m 0 min 0 min 263 W/m 22,5 km/h (4 Bft) 97,83 %
22.04.2022 14:54 16,3 C 18,9 C 12,8 C 64 % 1005,0 hPa 0,0 l/m 0 min 0 min 270 W/m 12,9 km/h (3 Bft) 97,87 %
22.04.2022 14:56 16,7 C 20,0 C 13,3 C 63 % 1005,0 hPa 0,0 l/m 2 min 0 min 594 W/m 19,3 km/h (3 Bft) 95,74 %
22.04.2022 14:58 17,0 C 20,6 C 13,3 C 62 % 1005,1 hPa 0,0 l/m 2 min 0 min 918 W/m 19,3 km/h (3 Bft) 97,87 %
22.04.2022 15:00 17,5 C 22,2 C 13,9 C 62 % 1005,0 hPa 0,0 l/m 2 min 0 min 980 W/m 16,1 km/h (3 Bft) 95,74 %
22.04.2022 15:02 17,8 C 22,2 C 14,4 C 62 % 1005,0 hPa 0,0 l/m 2 min 0 min 888 W/m 16,1 km/h (3 Bft) 97,14 %
22.04.2022 15:04 17,6 C 20,6 C 13,9 C 62 % 1005,0 hPa 0,0 l/m 2 min 0 min 369 W/m 19,3 km/h (3 Bft) 97,87 %
22.04.2022 15:06 17,5 C 20,6 C 13,9 C 63 % 1005,0 hPa 0,0 l/m 2 min 0 min 368 W/m 16,1 km/h (3 Bft) 95,74 %
22.04.2022 15:08 17,4 C 20,0 C 13,9 C 62 % 1005,0 hPa 0,0 l/m 0 min 0 min 331 W/m 12,9 km/h (3 Bft) 96,55 %
22.04.2022 15:10 17,3 C 19,4 C 13,3 C 62 % 1004,9 hPa 0,0 l/m 0 min 0 min 319 W/m 16,1 km/h (3 Bft) 97,14 %
22.04.2022 15:12 17,1 C 18,9 C 13,3 C 62 % 1005,0 hPa 0,0 l/m 0 min 0 min 318 W/m 19,3 km/h (3 Bft) 97,87 %
22.04.2022 15:14 16,9 C 17,8 C 12,8 C 62 % 1004,9 hPa 0,0 l/m 0 min 0 min 274 W/m 16,1 km/h (3 Bft) 97,87 %
22.04.2022 15:16 16,6 C 17,8 C 12,8 C 62 % 1004,9 hPa 0,0 l/m 0 min 0 min 288 W/m 25,7 km/h (4 Bft) 97,87 %
22.04.2022 15:18 16,4 C 17,8 C 12,8 C 64 % 1004,9 hPa 0,0 l/m 2 min 0 min 393 W/m 35,4 km/h (5 Bft) 97,83 %
22.04.2022 15:20 16,4 C 17,2 C 12,8 C 64 % 1004,9 hPa 0,0 l/m 0 min 0 min 301 W/m 25,7 km/h (4 Bft) 97,87 %
22.04.2022 15:22 16,3 C 17,2 C 12,8 C 64 % 1004,9 hPa 0,0 l/m 0 min 0 min 327 W/m 19,3 km/h (3 Bft) 95,74 %
22.04.2022 15:24 16,3 C 18,3 C 12,8 C 65 % 1004,9 hPa 0,0 l/m 0 min 0 min 342 W/m 16,1 km/h (3 Bft) 97,87 %
22.04.2022 15:26 16,4 C 17,8 C 12,8 C 65 % 1004,9 hPa 0,0 l/m 0 min 0 min 325 W/m 35,4 km/h (5 Bft) 97,87 %
22.04.2022 15:28 16,3 C 17,2 C 12,8 C 64 % 1004,9 hPa 0,0 l/m 2 min 0 min 347 W/m 22,5 km/h (4 Bft) 95,74 %
22.04.2022 15:30 16,2 C 17,2 C 12,8 C 65 % 1005,0 hPa 0,0 l/m 2 min 0 min 368 W/m 22,5 km/h (4 Bft) 97,83 %
22.04.2022 15:32 16,3 C 18,3 C 12,8 C 64 % 1004,9 hPa 0,0 l/m 2 min 0 min 570 W/m 29,0 km/h (5 Bft) 97,87 %
22.04.2022 15:34 16,7 C 19,4 C 13,3 C 64 % 1004,9 hPa 0,0 l/m 2 min 0 min 889 W/m 22,5 km/h (4 Bft) 97,87 %
22.04.2022 15:36 17,2 C 20,6 C 13,9 C 65 % 1004,9 hPa 0,0 l/m 2 min 0 min 857 W/m 16,1 km/h (3 Bft) 97,87 %
22.04.2022 15:38 17,5 C 21,7 C 13,9 C 63 % 1004,9 hPa 0,0 l/m 2 min 0 min 886 W/m 16,1 km/h (3 Bft) 97,87 %
22.04.2022 15:40 17,7 C 21,7 C 13,9 C 61 % 1004,9 hPa 0,0 l/m 2 min 0 min 692 W/m 19,3 km/h (3 Bft) 95,74 %
22.04.2022 15:42 17,7 C 21,1 C 13,9 C 62 % 1004,8 hPa 0,0 l/m 2 min 0 min 430 W/m 16,1 km/h (3 Bft) 97,83 %
22.04.2022 15:44 17,5 C 20,6 C 13,9 C 62 % 1004,8 hPa 0,0 l/m 2 min 0 min 420 W/m 19,3 km/h (3 Bft) 97,87 %
22.04.2022 15:46 17,5 C 21,7 C 13,9 C 63 % 1004,9 hPa 0,0 l/m 2 min 0 min 794 W/m 16,1 km/h (3 Bft) 97,87 %
22.04.2022 15:48 17,6 C 22,2 C 13,9 C 63 % 1004,8 hPa 0,0 l/m 2 min 0 min 826 W/m 22,5 km/h (4 Bft) 97,87 %
22.04.2022 15:50 17,5 C 20,6 C 13,9 C 62 % 1004,8 hPa 0,0 l/m 2 min 0 min 708 W/m 22,5 km/h (4 Bft) 97,87 %
22.04.2022 15:52 17,3 C 20,6 C 13,9 C 63 % 1004,9 hPa 0,0 l/m 2 min 0 min 550 W/m 22,5 km/h (4 Bft) 100,00 %
22.04.2022 15:54 17,1 C 21,1 C 13,3 C 63 % 1004,9 hPa 0,0 l/m 2 min 0 min 730 W/m 19,3 km/h (3 Bft) 100,00 %
22.04.2022 15:56 17,1 C 20,0 C 13,3 C 63 % 1004,8 hPa 0,0 l/m 2 min 0 min 744 W/m 22,5 km/h (4 Bft) 100,00 %
22.04.2022 15:58 16,9 C 20,6 C 13,3 C 62 % 1004,8 hPa 0,0 l/m 2 min 0 min 717 W/m 19,3 km/h (3 Bft) 100,00 %
22.04.2022 16:00 16,9 C 21,1 C 13,3 C 63 % 1004,8 hPa 0,0 l/m 2 min 0 min 687 W/m 22,5 km/h (4 Bft) 97,87 %
22.04.2022 16:02 17,0 C 21,1 C 13,3 C 62 % 1004,8 hPa 0,0 l/m 2 min 0 min 733 W/m 22,5 km/h (4 Bft) 100,00 %
22.04.2022 16:04 16,9 C 20,0 C 13,3 C 62 % 1004,8 hPa 0,0 l/m 2 min 0 min 626 W/m 25,7 km/h (4 Bft) 97,87 %
22.04.2022 16:06 16,8 C 18,9 C 13,3 C 63 % 1004,8 hPa 0,0 l/m 0 min 0 min 264 W/m 22,5 km/h (4 Bft) 98,28 %
22.04.2022 16:08 16,7 C 18,9 C 12,8 C 63 % 1004,8 hPa 0,0 l/m 0 min 0 min 221 W/m 12,9 km/h (3 Bft) 100,00 %
22.04.2022 16:10 16,4 C 18,3 C 12,8 C 64 % 1004,8 hPa 0,0 l/m 0 min 0 min 197 W/m 16,1 km/h (3 Bft) 97,87 %
22.04.2022 16:12 16,3 C 17,2 C 12,8 C 64 % 1004,8 hPa 0,0 l/m 0 min 0 min 189 W/m 29,0 km/h (5 Bft) 97,87 %
22.04.2022 16:14 16,1 C 17,2 C 12,2 C 64 % 1004,8 hPa 0,0 l/m 0 min 0 min 187 W/m 19,3 km/h (3 Bft) 93,62 %
22.04.2022 16:16 15,9 C 16,7 C 12,2 C 64 % 1004,8 hPa 0,0 l/m 0 min 0 min 183 W/m 32,2 km/h (5 Bft) 95,65 %
22.04.2022 16:18 15,9 C 16,7 C 12,2 C 64 % 1004,7 hPa 0,0 l/m 0 min 0 min 231 W/m 19,3 km/h (3 Bft) 95,74 %
22.04.2022 16:20 15,9 C 17,8 C 12,2 C 65 % 1004,7 hPa 0,0 l/m 2 min 0 min 402 W/m 22,5 km/h (4 Bft) 95,74 %
22.04.2022 16:22 16,2 C 18,9 C 12,8 C 64 % 1004,7 hPa 0,0 l/m 2 min 0 min 633 W/m 19,3 km/h (3 Bft) 93,62 %
22.04.2022 16:24 16,4 C 20,0 C 12,8 C 64 % 1004,7 hPa 0,0 l/m 2 min 0 min 624 W/m 29,0 km/h (5 Bft) 95,74 %
22.04.2022 16:26 16,6 C 18,9 C 12,8 C 64 % 1004,7 hPa 0,0 l/m 2 min 0 min 499 W/m 19,3 km/h (3 Bft) 95,74 %
22.04.2022 16:28 16,4 C 18,3 C 12,8 C 63 % 1004,7 hPa 0,0 l/m 0 min 0 min 219 W/m 19,3 km/h (3 Bft) 95,65 %
22.04.2022 16:30 16,3 C 20,0 C 12,8 C 64 % 1004,7 hPa 0,0 l/m 2 min 0 min 307 W/m 22,5 km/h (4 Bft) 95,74 %
22.04.2022 16:32 16,6 C 21,1 C 13,3 C 64 % 1004,7 hPa 0,0 l/m 2 min 0 min 685 W/m 38,6 km/h (5 Bft) 95,74 %
22.04.2022 16:34 16,8 C 22,2 C 13,9 C 64 % 1004,6 hPa 0,0 l/m 2 min 0 min 673 W/m 32,2 km/h (5 Bft) 95,74 %
22.04.2022 16:36 16,9 C 22,8 C 13,9 C 63 % 1004,7 hPa 0,0 l/m 2 min 0 min 661 W/m 25,7 km/h (4 Bft) 95,74 %
22.04.2022 16:38 17,0 C 22,2 C 13,9 C 63 % 1004,7 hPa 0,0 l/m 2 min 0 min 641 W/m 32,2 km/h (5 Bft) 95,74 %
22.04.2022 16:40 17,1 C 23,3 C 13,9 C 64 % 1004,6 hPa 0,0 l/m 2 min 0 min 640 W/m 22,5 km/h (4 Bft) 93,48 %
22.04.2022 16:42 17,2 C 22,8 C 13,9 C 63 % 1004,6 hPa 0,0 l/m 2 min 0 min 645 W/m 25,7 km/h (4 Bft) 93,62 %
22.04.2022 16:44 17,2 C 22,8 C 13,9 C 62 % 1004,6 hPa 0,0 l/m 2 min 0 min 644 W/m 32,2 km/h (5 Bft) 95,74 %
22.04.2022 16:46 17,2 C 22,8 C 14,4 C 62 % 1004,7 hPa 0,0 l/m 2 min 0 min 621 W/m 19,3 km/h (3 Bft) 95,74 %
22.04.2022 16:48 17,3 C 23,9 C 14,4 C 61 % 1004,7 hPa 0,0 l/m 2 min 0 min 624 W/m 25,7 km/h (4 Bft) 95,74 %
22.04.2022 16:50 17,3 C 23,9 C 14,4 C 61 % 1004,6 hPa 0,0 l/m 2 min 0 min 607 W/m 32,2 km/h (5 Bft) 95,74 %
22.04.2022 16:52 17,3 C 23,9 C 14,4 C 60 % 1004,6 hPa 0,0 l/m 2 min 0 min 587 W/m 19,3 km/h (3 Bft) 97,83 %
22.04.2022 16:54 17,1 C 22,8 C 13,9 C 60 % 1004,6 hPa 0,0 l/m 2 min 0 min 583 W/m 35,4 km/h (5 Bft) 95,74 %
22.04.2022 16:56 17,1 C 23,3 C 14,4 C 61 % 1004,6 hPa 0,0 l/m 2 min 0 min 576 W/m 19,3 km/h (3 Bft) 97,87 %
22.04.2022 16:58 17,1 C 22,8 C 14,4 C 61 % 1004,6 hPa 0,0 l/m 2 min 0 min 600 W/m 22,5 km/h (4 Bft) 95,74 %
22.04.2022 17:00 17,1 C 21,7 C 14,4 C 61 % 1004,7 hPa 0,0 l/m 2 min 0 min 599 W/m 19,3 km/h (3 Bft) 97,87 %
22.04.2022 17:02 16,9 C 20,0 C 13,9 C 61 % 1004,7 hPa 0,0 l/m 2 min 0 min 281 W/m 16,1 km/h (3 Bft) 100,00 %
22.04.2022 17:04 16,7 C 19,4 C 13,3 C 61 % 1004,7 hPa 0,0 l/m 0 min 0 min 183 W/m 22,5 km/h (4 Bft) 100,00 %
22.04.2022 17:06 16,6 C 20,6 C 13,3 C 62 % 1004,7 hPa 0,0 l/m 2 min 0 min 402 W/m 19,3 km/h (3 Bft) 100,00 %
22.04.2022 17:08 16,7 C 21,7 C 13,9 C 62 % 1004,7 hPa 0,0 l/m 2 min 0 min 511 W/m 19,3 km/h (3 Bft) 95,74 %
22.04.2022 17:10 16,8 C 22,2 C 13,9 C 61 % 1004,6 hPa 0,0 l/m 2 min 0 min 518 W/m 22,5 km/h (4 Bft) 100,00 %
22.04.2022 17:12 16,9 C 22,2 C 14,4 C 61 % 1004,6 hPa 0,0 l/m 2 min 0 min 514 W/m 19,3 km/h (3 Bft) 100,00 %
22.04.2022 17:14 16,9 C 22,2 C 13,9 C 60 % 1004,6 hPa 0,0 l/m 2 min 0 min 509 W/m 22,5 km/h (4 Bft) 100,00 %
22.04.2022 17:16 17,1 C 22,8 C 14,4 C 61 % 1004,6 hPa 0,0 l/m 2 min 0 min 500 W/m 25,7 km/h (4 Bft) 97,83 %
22.04.2022 17:18 17,0 C 22,8 C 14,4 C 61 % 1004,6 hPa 0,0 l/m 2 min 0 min 485 W/m 29,0 km/h (5 Bft) 100,00 %
22.04.2022 17:20 17,1 C 22,8 C 14,4 C 61 % 1004,6 hPa 0,0 l/m 2 min 0 min 484 W/m 19,3 km/h (3 Bft) 100,00 %
22.04.2022 17:22 17,1 C 22,8 C 14,4 C 61 % 1004,6 hPa 0,0 l/m 2 min 0 min 478 W/m 19,3 km/h (3 Bft) 100,00 %
22.04.2022 17:24 17,2 C 23,3 C 14,4 C 61 % 1004,5 hPa 0,0 l/m 2 min 0 min 487 W/m 19,3 km/h (3 Bft) 97,87 %
22.04.2022 17:26 17,2 C 23,3 C 14,4 C 61 % 1004,6 hPa 0,0 l/m 2 min 0 min 479 W/m 16,1 km/h (3 Bft) 100,00 %
22.04.2022 17:28 17,2 C 23,3 C 14,4 C 61 % 1004,5 hPa 0,0 l/m 2 min 0 min 467 W/m 19,3 km/h (3 Bft) 100,00 %
22.04.2022 17:30 17,2 C 22,8 C 14,4 C 61 % 1004,5 hPa 0,0 l/m 2 min 0 min 451 W/m 19,3 km/h (3 Bft) 100,00 %
22.04.2022 17:32 17,1 C 23,3 C 14,4 C 61 % 1004,5 hPa 0,0 l/m 2 min 0 min 448 W/m 22,5 km/h (4 Bft) 100,00 %
22.04.2022 17:34 17,1 C 23,3 C 14,4 C 61 % 1004,5 hPa 0,0 l/m 2 min 0 min 445 W/m 25,7 km/h (4 Bft) 100,00 %
22.04.2022 17:36 17,1 C 23,3 C 14,4 C 61 % 1004,5 hPa 0,0 l/m 2 min 0 min 430 W/m 16,1 km/h (3 Bft) 100,00 %
22.04.2022 17:38 17,1 C 22,8 C 14,4 C 61 % 1004,5 hPa 0,0 l/m 2 min 0 min 432 W/m 25,7 km/h (4 Bft) 97,83 %
22.04.2022 17:40 17,0 C 23,3 C 14,4 C 61 % 1004,5 hPa 0,0 l/m 2 min 0 min 420 W/m 12,9 km/h (3 Bft) 100,00 %
22.04.2022 17:42 17,2 C 23,3 C 14,4 C 62 % 1004,5 hPa 0,0 l/m 2 min 0 min 432 W/m 12,9 km/h (3 Bft) 100,00 %
22.04.2022 17:44 17,2 C 22,2 C 14,4 C 62 % 1004,5 hPa 0,0 l/m 2 min 0 min 356 W/m 19,3 km/h (3 Bft) 100,00 %
22.04.2022 17:46 16,9 C 20,6 C 13,9 C 62 % 1004,5 hPa 0,0 l/m 2 min 0 min 254 W/m 22,5 km/h (4 Bft) 100,00 %
22.04.2022 17:48 16,8 C 19,4 C 13,9 C 63 % 1004,5 hPa 0,0 l/m 2 min 0 min 220 W/m 16,1 km/h (3 Bft) 97,87 %
22.04.2022 17:50 16,7 C 18,9 C 13,3 C 63 % 1004,5 hPa 0,0 l/m 2 min 0 min 218 W/m 12,9 km/h (3 Bft) 100,00 %
22.04.2022 17:52 16,6 C 17,8 C 12,8 C 62 % 1004,5 hPa 0,0 l/m 0 min 0 min 205 W/m 32,2 km/h (5 Bft) 100,00 %
22.04.2022 17:54 16,4 C 17,8 C 12,8 C 64 % 1004,5 hPa 0,0 l/m 0 min 0 min 200 W/m 16,1 km/h (3 Bft) 100,00 %
22.04.2022 17:56 16,3 C 17,2 C 12,8 C 64 % 1004,5 hPa 0,0 l/m 0 min 0 min 188 W/m 32,2 km/h (5 Bft) 97,87 %
22.04.2022 17:58 16,3 C 17,2 C 12,8 C 64 % 1004,5 hPa 0,0 l/m 0 min 0 min 189 W/m 19,3 km/h (3 Bft) 97,87 %
22.04.2022 18:00 16,2 C 17,2 C 12,8 C 65 % 1004,5 hPa 0,0 l/m 2 min 0 min 207 W/m 19,3 km/h (3 Bft) 97,87 %
22.04.2022 18:02 16,3 C 17,2 C 12,8 C 65 % 1004,5 hPa 0,0 l/m 2 min 0 min 210 W/m 16,1 km/h (3 Bft) 95,65 %
22.04.2022 18:04 16,3 C 17,2 C 12,8 C 65 % 1004,5 hPa 0,0 l/m 2 min 0 min 208 W/m 19,3 km/h (3 Bft) 97,87 %
22.04.2022 18:08 16,3 C 16,7 C 12,8 C 65 % 1004,4 hPa 0,0 l/m 0 min 0 min 158 W/m 19,3 km/h (3 Bft) 98,00 %
22.04.2022 18:10 16,3 C 16,7 C 12,8 C 65 % 1004,4 hPa 0,0 l/m 0 min 0 min 153 W/m 12,9 km/h (3 Bft) 97,87 %
22.04.2022 18:12 16,2 C 16,7 C 12,8 C 65 % 1004,5 hPa 0,0 l/m 0 min 0 min 150 W/m 9,7 km/h (2 Bft) 95,65 %
22.04.2022 18:14 16,2 C 16,7 C 12,8 C 65 % 1004,5 hPa 0,0 l/m 0 min 0 min 145 W/m 12,9 km/h (3 Bft) 97,87 %
22.04.2022 18:16 16,3 C 16,7 C 12,8 C 65 % 1004,5 hPa 0,0 l/m 0 min 0 min 141 W/m 16,1 km/h (3 Bft) 97,56 %
22.04.2022 18:18 16,3 C 16,7 C 12,2 C 64 % 1004,4 hPa 0,0 l/m 0 min 0 min 144 W/m 35,4 km/h (5 Bft) 97,87 %
22.04.2022 18:20 16,2 C 16,7 C 12,2 C 65 % 1004,4 hPa 0,0 l/m 0 min 0 min 148 W/m 19,3 km/h (3 Bft) 97,87 %
22.04.2022 18:22 16,2 C 16,7 C 12,2 C 64 % 1004,4 hPa 0,0 l/m 0 min 0 min 155 W/m 16,1 km/h (3 Bft) 95,74 %
22.04.2022 18:24 16,2 C 16,7 C 12,8 C 65 % 1004,4 hPa 0,0 l/m 0 min 0 min 155 W/m 19,3 km/h (3 Bft) 95,65 %
22.04.2022 18:26 16,3 C 16,7 C 12,8 C 65 % 1004,5 hPa 0,0 l/m 0 min 0 min 150 W/m 19,3 km/h (3 Bft) 93,62 %
22.04.2022 18:28 16,2 C 16,7 C 12,2 C 63 % 1004,4 hPa 0,0 l/m 0 min 0 min 149 W/m 19,3 km/h (3 Bft) 95,74 %
22.04.2022 18:30 16,2 C 16,7 C 12,2 C 64 % 1004,4 hPa 0,0 l/m 0 min 0 min 149 W/m 12,9 km/h (3 Bft) 95,74 %
22.04.2022 18:32 16,2 C 16,7 C 12,2 C 65 % 1004,4 hPa 0,0 l/m 0 min 0 min 135 W/m 22,5 km/h (4 Bft) 96,30 %
22.04.2022 18:34 16,2 C 16,1 C 12,2 C 64 % 1004,4 hPa 0,0 l/m 0 min 0 min 121 W/m 29,0 km/h (5 Bft) 95,65 %
22.04.2022 18:36 16,1 C 16,1 C 12,2 C 64 % 1004,4 hPa 0,0 l/m 0 min 0 min 118 W/m 12,9 km/h (3 Bft) 95,74 %
22.04.2022 18:38 16,1 C 16,1 C 12,2 C 64 % 1004,5 hPa 0,0 l/m 0 min 0 min 119 W/m 12,9 km/h (3 Bft) 95,74 %
22.04.2022 18:40 16,1 C 16,1 C 12,2 C 64 % 1004,5 hPa 0,0 l/m 0 min 0 min 114 W/m 12,9 km/h (3 Bft) 95,74 %
22.04.2022 18:42 16,1 C 16,1 C 12,2 C 64 % 1004,5 hPa 0,0 l/m 0 min 0 min 108 W/m 19,3 km/h (3 Bft) 95,74 %
22.04.2022 18:44 16,0 C 16,1 C 12,2 C 64 % 1004,5 hPa 0,0 l/m 0 min 0 min 105 W/m 16,1 km/h (3 Bft) 97,87 %
22.04.2022 18:46 15,9 C 16,1 C 12,2 C 64 % 1004,5 hPa 0,0 l/m 0 min 0 min 106 W/m 16,1 km/h (3 Bft) 97,83 %
22.04.2022 18:48 15,9 C 16,1 C 12,2 C 65 % 1004,6 hPa 0,0 l/m 0 min 0 min 106 W/m 16,1 km/h (3 Bft) 95,74 %
22.04.2022 18:50 15,9 C 15,6 C 12,2 C 65 % 1004,5 hPa 0,0 l/m 0 min 0 min 105 W/m 19,3 km/h (3 Bft) 95,74 %
22.04.2022 18:52 15,8 C 15,6 C 12,2 C 65 % 1004,5 hPa 0,0 l/m 0 min 0 min 105 W/m 19,3 km/h (3 Bft) 97,87 %
22.04.2022 18:54 15,8 C 15,6 C 11,7 C 65 % 1004,5 hPa 0,0 l/m 0 min 0 min 105 W/m 22,5 km/h (4 Bft) 97,87 %
22.04.2022 18:56 15,8 C 15,6 C 11,7 C 64 % 1004,5 hPa 0,0 l/m 0 min 0 min 98 W/m 16,1 km/h (3 Bft) 100,00 %
22.04.2022 18:58 15,8 C 15,6 C 11,7 C 65 % 1004,5 hPa 0,0 l/m 0 min 0 min 94 W/m 9,7 km/h (2 Bft) 100,00 %
22.04.2022 19:00 15,8 C 15,6 C 11,7 C 65 % 1004,5 hPa 0,0 l/m 0 min 0 min 90 W/m 16,1 km/h (3 Bft) 100,00 %
22.04.2022 19:02 15,8 C 15,6 C 11,7 C 65 % 1004,5 hPa 0,0 l/m 0 min 0 min 88 W/m 12,9 km/h (3 Bft) 100,00 %
22.04.2022 19:04 15,8 C 15,6 C 11,7 C 65 % 1004,5 hPa 0,0 l/m 0 min 0 min 88 W/m 12,9 km/h (3 Bft) 97,87 %
22.04.2022 19:06 15,8 C 15,6 C 11,7 C 65 % 1004,5 hPa 0,0 l/m 0 min 0 min 87 W/m 22,5 km/h (4 Bft) 95,74 %
22.04.2022 19:08 15,8 C 15,6 C 11,7 C 64 % 1004,5 hPa 0,0 l/m 0 min 0 min 85 W/m 16,1 km/h (3 Bft) 97,87 %
22.04.2022 19:10 15,8 C 15,6 C 11,7 C 64 % 1004,6 hPa 0,0 l/m 0 min 0 min 82 W/m 25,7 km/h (4 Bft) 97,83 %
22.04.2022 19:12 15,7 C 15,6 C 11,7 C 65 % 1004,5 hPa 0,0 l/m 0 min 0 min 81 W/m 9,7 km/h (2 Bft) 93,62 %
22.04.2022 19:14 15,7 C 15,6 C 11,7 C 65 % 1004,6 hPa 0,0 l/m 0 min 0 min 79 W/m 9,7 km/h (2 Bft) 97,87 %
22.04.2022 19:16 15,7 C 15,6 C 11,7 C 65 % 1004,6 hPa 0,0 l/m 0 min 0 min 77 W/m 16,1 km/h (3 Bft) 97,87 %
22.04.2022 19:18 15,7 C 15,6 C 11,7 C 65 % 1004,6 hPa 0,0 l/m 0 min 0 min 76 W/m 16,1 km/h (3 Bft) 97,87 %
22.04.2022 19:20 15,7 C 15,6 C 11,7 C 64 % 1004,6 hPa 0,0 l/m 0 min 0 min 77 W/m 19,3 km/h (3 Bft) 97,83 %
22.04.2022 19:22 15,7 C 15,6 C 11,7 C 65 % 1004,6 hPa 0,0 l/m 0 min 0 min 77 W/m 19,3 km/h (3 Bft) 97,87 %
22.04.2022 19:24 15,7 C 15,6 C 11,7 C 65 % 1004,6 hPa 0,0 l/m 0 min 0 min 80 W/m 16,1 km/h (3 Bft) 95,74 %
22.04.2022 19:26 15,7 C 15,6 C 11,7 C 65 % 1004,5 hPa 0,0 l/m 0 min 0 min 83 W/m 16,1 km/h (3 Bft) 97,87 %
22.04.2022 19:28 15,7 C 15,6 C 11,7 C 65 % 1004,6 hPa 0,0 l/m 0 min 0 min 80 W/m 12,9 km/h (3 Bft) 97,87 %
22.04.2022 19:30 15,6 C 15,6 C 11,7 C 64 % 1004,5 hPa 0,0 l/m 0 min 0 min 78 W/m 22,5 km/h (4 Bft) 95,74 %
22.04.2022 19:32 15,7 C 15,6 C 11,7 C 65 % 1004,6 hPa 0,0 l/m 0 min 0 min 76 W/m 12,9 km/h (3 Bft) 95,74 %
22.04.2022 19:34 15,7 C 15,0 C 11,7 C 65 % 1004,6 hPa 0,0 l/m 0 min 0 min 72 W/m 22,5 km/h (4 Bft) 97,87 %
22.04.2022 19:36 15,6 C 15,0 C 11,1 C 64 % 1004,5 hPa 0,0 l/m 0 min 0 min 72 W/m 16,1 km/h (3 Bft) 97,87 %
22.04.2022 19:38 15,6 C 15,0 C 11,1 C 64 % 1004,5 hPa 0,0 l/m 0 min 0 min 74 W/m 12,9 km/h (3 Bft) 97,87 %
22.04.2022 19:40 15,6 C 15,0 C 11,1 C 65 % 1004,5 hPa 0,0 l/m 2 min 0 min 76 W/m 16,1 km/h (3 Bft) 95,74 %
22.04.2022 19:42 15,5 C 15,0 C 11,1 C 64 % 1004,5 hPa 0,0 l/m 2 min 0 min 75 W/m 16,1 km/h (3 Bft) 97,87 %
22.04.2022 19:44 15,4 C 15,0 C 11,1 C 65 % 1004,5 hPa 0,0 l/m 2 min 0 min 70 W/m 32,2 km/h (5 Bft) 97,83 %
22.04.2022 19:46 15,4 C 15,0 C 11,1 C 64 % 1004,5 hPa 0,0 l/m 2 min 0 min 65 W/m 25,7 km/h (4 Bft) 95,74 %
22.04.2022 19:48 15,4 C 15,0 C 11,1 C 64 % 1004,5 hPa 0,0 l/m 2 min 0 min 62 W/m 12,9 km/h (3 Bft) 93,62 %
22.04.2022 19:50 15,4 C 15,0 C 11,1 C 65 % 1004,5 hPa 0,0 l/m 2 min 0 min 60 W/m 12,9 km/h (3 Bft) 97,87 %
22.04.2022 19:52 15,4 C 15,0 C 11,1 C 65 % 1004,5 hPa 0,0 l/m 0 min 0 min 56 W/m 12,9 km/h (3 Bft) 100,00 %
22.04.2022 19:54 15,3 C 15,0 C 11,1 C 65 % 1004,6 hPa 0,0 l/m 0 min 0 min 52 W/m 32,2 km/h (5 Bft) 100,00 %
22.04.2022 19:56 15,3 C 15,0 C 11,1 C 65 % 1004,6 hPa 0,0 l/m 0 min 0 min 47 W/m 12,9 km/h (3 Bft) 100,00 %
22.04.2022 19:58 15,3 C 14,4 C 11,1 C 65 % 1004,6 hPa 0,0 l/m 0 min 0 min 42 W/m 9,7 km/h (2 Bft) 97,87 %
22.04.2022 20:00 15,3 C 14,4 C 11,1 C 66 % 1004,6 hPa 0,0 l/m 0 min 0 min 38 W/m 16,1 km/h (3 Bft) 100,00 %
22.04.2022 20:02 15,2 C 14,4 C 11,1 C 65 % 1004,6 hPa 0,0 l/m 0 min 0 min 33 W/m 9,7 km/h (2 Bft) 100,00 %
22.04.2022 20:04 15,2 C 14,4 C 11,1 C 65 % 1004,6 hPa 0,0 l/m 0 min 0 min 30 W/m 12,9 km/h (3 Bft) 100,00 %
22.04.2022 20:06 15,1 C 14,4 C 10,6 C 65 % 1004,6 hPa 0,0 l/m 0 min 0 min 28 W/m 12,9 km/h (3 Bft) 97,83 %
22.04.2022 20:08 15,1 C 14,4 C 10,6 C 65 % 1004,6 hPa 0,0 l/m 0 min 0 min 26 W/m 16,1 km/h (3 Bft) 100,00 %
22.04.2022 20:10 15,1 C 14,4 C 10,6 C 65 % 1004,7 hPa 0,0 l/m 0 min 0 min 25 W/m 16,1 km/h (3 Bft) 100,00 %
22.04.2022 20:12 15,0 C 14,4 C 10,6 C 65 % 1004,6 hPa 0,0 l/m 0 min 0 min 24 W/m 16,1 km/h (3 Bft) 100,00 %
22.04.2022 20:14 14,9 C 13,9 C 10,6 C 66 % 1004,7 hPa 0,0 l/m 0 min 0 min 22 W/m 12,9 km/h (3 Bft) 97,87 %
22.04.2022 20:16 14,9 C 13,9 C 10,6 C 66 % 1004,7 hPa 0,0 l/m 0 min 0 min 20 W/m 12,9 km/h (3 Bft) 100,00 %
22.04.2022 20:18 14,9 C 13,9 C 10,6 C 66 % 1004,6 hPa 0,0 l/m 0 min 0 min 19 W/m 12,9 km/h (3 Bft) 100,00 %
22.04.2022 20:20 14,8 C 13,9 C 10,6 C 66 % 1004,7 hPa 0,0 l/m 0 min 0 min 17 W/m 12,9 km/h (3 Bft) 100,00 %
22.04.2022 20:22 14,8 C 13,9 C 10,0 C 66 % 1004,7 hPa 0,0 l/m 0 min 0 min 16 W/m 9,7 km/h (2 Bft) 95,74 %
22.04.2022 20:24 14,7 C 13,9 C 10,0 C 66 % 1004,7 hPa 0,0 l/m 0 min 0 min 14 W/m 19,3 km/h (3 Bft) 95,74 %
22.04.2022 20:26 14,6 C 13,9 C 10,0 C 67 % 1004,7 hPa 0,0 l/m 0 min 0 min 13 W/m 16,1 km/h (3 Bft) 95,74 %
22.04.2022 20:28 14,6 C 13,9 C 10,0 C 67 % 1004,7 hPa 0,0 l/m 0 min 0 min 12 W/m 12,9 km/h (3 Bft) 97,87 %
22.04.2022 20:30 14,6 C 13,3 C 10,0 C 67 % 1004,7 hPa 0,0 l/m 0 min 0 min 11 W/m 9,7 km/h (2 Bft) 97,83 %
22.04.2022 20:32 14,5 C 13,3 C 10,0 C 67 % 1004,8 hPa 0,0 l/m 0 min 0 min 9 W/m 12,9 km/h (3 Bft) 94,44 %
22.04.2022 20:34 14,4 C 13,3 C 10,0 C 67 % 1004,7 hPa 0,0 l/m 0 min 0 min 8 W/m 12,9 km/h (3 Bft) 95,74 %
22.04.2022 20:36 14,3 C 13,3 C 10,0 C 67 % 1004,8 hPa 0,0 l/m 0 min 0 min 7 W/m 19,3 km/h (3 Bft) 95,74 %
22.04.2022 20:38 14,3 C 13,3 C 9,4 C 68 % 1004,8 hPa 0,0 l/m 0 min 0 min 6 W/m 12,9 km/h (3 Bft) 95,74 %
22.04.2022 20:40 14,3 C 13,3 C 9,4 C 68 % 1004,8 hPa 0,0 l/m 0 min 0 min 5 W/m 16,1 km/h (3 Bft) 95,74 %
22.04.2022 20:42 14,3 C 12,8 C 9,4 C 68 % 1004,8 hPa 0,0 l/m 0 min 0 min 4 W/m 9,7 km/h (2 Bft) 93,62 %
22.04.2022 20:44 14,1 C 12,8 C 9,4 C 69 % 1004,9 hPa 0,0 l/m 0 min 0 min 0 W/m 9,7 km/h (2 Bft) 95,65 %
22.04.2022 20:46 14,1 C 12,8 C 9,4 C 69 % 1004,9 hPa 0,0 l/m 0 min 0 min 0 W/m 9,7 km/h (2 Bft) 95,74 %
22.04.2022 20:48 13,9 C 12,8 C 9,4 C 69 % 1004,9 hPa 0,0 l/m 0 min 0 min 0 W/m 12,9 km/h (3 Bft) 95,74 %
22.04.2022 20:50 13,9 C 12,8 C 9,4 C 69 % 1004,9 hPa 0,0 l/m 0 min 0 min 0 W/m 12,9 km/h (3 Bft) 95,74 %
22.04.2022 20:52 13,8 C 12,8 C 9,4 C 70 % 1004,9 hPa 0,0 l/m 0 min 0 min 0 W/m 12,9 km/h (3 Bft) 95,74 %
22.04.2022 20:54 13,8 C 12,8 C 9,4 C 70 % 1004,9 hPa 0,0 l/m 0 min 0 min 0 W/m 9,7 km/h (2 Bft) 97,87 %
22.04.2022 20:56 13,7 C 12,8 C 8,9 C 70 % 1004,9 hPa 0,0 l/m 0 min 0 min 0 W/m 16,1 km/h (3 Bft) 97,83 %
22.04.2022 20:58 13,7 C 12,2 C 8,9 C 70 % 1004,9 hPa 0,0 l/m 0 min 0 min 0 W/m 6,4 km/h (2 Bft) 95,74 %
22.04.2022 21:00 13,6 C 12,2 C 8,9 C 71 % 1005,0 hPa 0,0 l/m 0 min 0 min 0 W/m 9,7 km/h (2 Bft) 97,87 %
22.04.2022 21:02 13,6 C 12,2 C 8,9 C 71 % 1005,0 hPa 0,0 l/m 0 min 0 min 0 W/m 9,7 km/h (2 Bft) 95,74 %
22.04.2022 21:04 13,5 C 12,2 C 8,9 C 71 % 1005,0 hPa 0,0 l/m 0 min 0 min 0 W/m 12,9 km/h (3 Bft) 97,87 %
22.04.2022 21:06 13,4 C 12,2 C 8,9 C 71 % 1005,0 hPa 0,0 l/m 0 min 0 min 0 W/m 9,7 km/h (2 Bft) 95,74 %
22.04.2022 21:08 13,4 C 12,2 C 8,9 C 71 % 1005,1 hPa 0,0 l/m 0 min 0 min 0 W/m 6,4 km/h (2 Bft) 69,57 %
22.04.2022 21:10 13,3 C 12,2 C 8,9 C 72 % 1005,0 hPa 0,0 l/m 0 min 0 min 0 W/m 9,7 km/h (2 Bft) 81,58 %
22.04.2022 21:12 13,3 C 12,2 C 8,9 C 72 % 1005,0 hPa 0,0 l/m 0 min 0 min 0 W/m 6,4 km/h (2 Bft) 97,87 %
22.04.2022 21:14 13,2 C 12,2 C 8,9 C 72 % 1005,0 hPa 0,0 l/m 0 min 0 min 0 W/m 6,4 km/h (2 Bft) 100,00 %
22.04.2022 21:16 13,2 C 12,2 C 8,3 C 72 % 1005,1 hPa 0,0 l/m 0 min 0 min 0 W/m 19,3 km/h (3 Bft) 100,00 %
22.04.2022 21:18 13,1 C 11,7 C 8,3 C 73 % 1005,1 hPa 0,0 l/m 0 min 0 min 0 W/m 12,9 km/h (3 Bft) 100,00 %
22.04.2022 21:20 13,1 C 11,7 C 8,3 C 73 % 1005,1 hPa 0,0 l/m 0 min 0 min 0 W/m 3,2 km/h (1 Bft) 100,00 %
22.04.2022 21:22 13,0 C 11,7 C 8,3 C 73 % 1005,1 hPa 0,0 l/m 0 min 0 min 0 W/m 9,7 km/h (2 Bft) 100,00 %
22.04.2022 21:24 12,9 C 11,7 C 8,3 C 73 % 1005,2 hPa 0,0 l/m 0 min 0 min 0 W/m 12,9 km/h (3 Bft) 100,00 %
22.04.2022 21:26 12,9 C 11,7 C 8,3 C 73 % 1005,1 hPa 0,0 l/m 0 min 0 min 0 W/m 9,7 km/h (2 Bft) 100,00 %
22.04.2022 21:28 12,9 C 11,7 C 8,3 C 74 % 1005,2 hPa 0,0 l/m 0 min 0 min 0 W/m 6,4 km/h (2 Bft) 100,00 %
22.04.2022 21:30 12,8 C 11,7 C 8,3 C 74 % 1005,2 hPa 0,0 l/m 0 min 0 min 0 W/m 6,4 km/h (2 Bft) 97,87 %
22.04.2022 21:32 12,8 C 11,7 C 8,3 C 74 % 1005,2 hPa 0,0 l/m 0 min 0 min 0 W/m 9,7 km/h (2 Bft) 100,00 %
22.04.2022 21:34 12,7 C 11,7 C 8,3 C 74 % 1005,2 hPa 0,0 l/m 0 min 0 min 0 W/m 6,4 km/h (2 Bft) 100,00 %
22.04.2022 21:36 12,7 C 11,7 C 8,3 C 74 % 1005,2 hPa 0,0 l/m 0 min 0 min 0 W/m 9,7 km/h (2 Bft) 100,00 %
22.04.2022 21:38 12,6 C 11,7 C 8,3 C 74 % 1005,2 hPa 0,0 l/m 0 min 0 min 0 W/m 6,4 km/h (2 Bft) 100,00 %
22.04.2022 21:40 12,6 C 11,7 C 7,8 C 75 % 1005,2 hPa 0,0 l/m 0 min 0 min 0 W/m 6,4 km/h (2 Bft) 100,00 %
22.04.2022 21:42 12,6 C 11,7 C 7,8 C 75 % 1005,2 hPa 0,0 l/m 0 min 0 min 0 W/m 9,7 km/h (2 Bft) 100,00 %
22.04.2022 21:44 12,5 C 11,1 C 7,8 C 75 % 1005,2 hPa 0,0 l/m 0 min 0 min 0 W/m 9,7 km/h (2 Bft) 100,00 %
22.04.2022 21:46 12,4 C 11,1 C 7,8 C 75 % 1005,2 hPa 0,0 l/m 0 min 0 min 0 W/m 6,4 km/h (2 Bft) 100,00 %
22.04.2022 21:48 12,4 C 11,1 C 7,8 C 75 % 1005,2 hPa 0,0 l/m 0 min 0 min 0 W/m 6,4 km/h (2 Bft) 100,00 %
22.04.2022 21:50 12,4 C 11,1 C 7,8 C 76 % 1005,2 hPa 0,0 l/m 0 min 0 min 0 W/m 6,4 km/h (2 Bft) 100,00 %
22.04.2022 21:52 12,3 C 11,1 C 7,8 C 76 % 1005,2 hPa 0,0 l/m 0 min 0 min 0 W/m 6,4 km/h (2 Bft) 100,00 %
22.04.2022 21:54 12,3 C 11,1 C 7,8 C 76 % 1005,2 hPa 0,0 l/m 0 min 0 min 0 W/m 6,4 km/h (2 Bft) 100,00 %
22.04.2022 21:56 12,3 C 11,1 C 7,8 C 76 % 1005,2 hPa 0,0 l/m 0 min 0 min 0 W/m 9,7 km/h (2 Bft) 97,87 %
22.04.2022 21:58 12,2 C 11,1 C 7,8 C 76 % 1005,2 hPa 0,0 l/m 0 min 0 min 0 W/m 9,7 km/h (2 Bft) 100,00 %
22.04.2022 22:00 12,2 C 11,1 C 7,8 C 76 % 1005,3 hPa 0,0 l/m 0 min 0 min 0 W/m 6,4 km/h (2 Bft) 100,00 %
22.04.2022 22:02 12,2 C 11,1 C 7,8 C 76 % 1005,2 hPa 0,0 l/m 0 min 0 min 0 W/m 6,4 km/h (2 Bft) 95,74 %
22.04.2022 22:04 12,1 C 11,1 C 7,8 C 76 % 1005,2 hPa 0,0 l/m 0 min 0 min 0 W/m 6,4 km/h (2 Bft) 97,87 %
22.04.2022 22:06 12,1 C 11,1 C 7,8 C 77 % 1005,3 hPa 0,0 l/m 0 min 0 min 0 W/m 6,4 km/h (2 Bft) 97,83 %
22.04.2022 22:08 12,1 C 11,1 C 7,8 C 77 % 1005,2 hPa 0,0 l/m 0 min 0 min 0 W/m 6,4 km/h (2 Bft) 95,74 %
22.04.2022 22:10 12,0 C 10,6 C 7,8 C 77 % 1005,2 hPa 0,0 l/m 0 min 0 min 0 W/m 9,7 km/h (2 Bft) 95,74 %
22.04.2022 22:12 11,9 C 11,1 C 7,8 C 77 % 1005,2 hPa 0,0 l/m 0 min 0 min 0 W/m 6,4 km/h (2 Bft) 95,74 %
22.04.2022 22:14 11,9 C 11,1 C 7,8 C 77 % 1005,3 hPa 0,0 l/m 0 min 0 min 0 W/m 9,7 km/h (2 Bft) 95,74 %
22.04.2022 22:16 11,9 C 10,6 C 7,2 C 77 % 1005,2 hPa 0,0 l/m 0 min 0 min 0 W/m 6,4 km/h (2 Bft) 95,74 %
22.04.2022 22:18 11,9 C 10,6 C 7,2 C 77 % 1005,2 hPa 0,0 l/m 0 min 0 min 0 W/m 6,4 km/h (2 Bft) 95,65 %
22.04.2022 22:20 11,8 C 10,6 C 7,2 C 77 % 1005,3 hPa 0,0 l/m 0 min 0 min 0 W/m 9,7 km/h (2 Bft) 97,87 %
22.04.2022 22:22 11,8 C 10,6 C 7,2 C 77 % 1005,3 hPa 0,0 l/m 0 min 0 min 0 W/m 6,4 km/h (2 Bft) 95,74 %
22.04.2022 22:24 11,8 C 10,6 C 7,2 C 78 % 1005,3 hPa 0,0 l/m 0 min 0 min 0 W/m 6,4 km/h (2 Bft) 95,74 %
22.04.2022 22:26 11,8 C 10,6 C 7,2 C 78 % 1005,4 hPa 0,0 l/m 0 min 0 min 0 W/m 6,4 km/h (2 Bft) 93,62 %
22.04.2022 22:28 11,7 C 10,6 C 7,2 C 78 % 1005,4 hPa 0,0 l/m 0 min 0 min 0 W/m 3,2 km/h (1 Bft) 95,74 %
22.04.2022 22:30 11,7 C 10,6 C 7,2 C 78 % 1005,4 hPa 0,0 l/m 0 min 0 min 0 W/m 6,4 km/h (2 Bft) 95,65 %
22.04.2022 22:32 11,7 C 10,6 C 7,2 C 78 % 1005,4 hPa 0,0 l/m 0 min 0 min 0 W/m 6,4 km/h (2 Bft) 95,74 %
22.04.2022 22:34 11,6 C 10,6 C 7,2 C 78 % 1005,4 hPa 0,0 l/m 0 min 0 min 0 W/m 6,4 km/h (2 Bft) 95,74 %
22.04.2022 22:36 11,6 C 10,6 C 7,2 C 78 % 1005,4 hPa 0,0 l/m 0 min 0 min 0 W/m 6,4 km/h (2 Bft) 95,74 %
22.04.2022 22:38 11,6 C 10,6 C 7,2 C 78 % 1005,4 hPa 0,0 l/m 0 min 0 min 0 W/m 6,4 km/h (2 Bft) 95,74 %
22.04.2022 22:40 11,6 C 10,6 C 7,2 C 78 % 1005,5 hPa 0,0 l/m 0 min 0 min 0 W/m 6,4 km/h (2 Bft) 93,48 %
22.04.2022 22:42 11,5 C 10,6 C 7,2 C 78 % 1005,5 hPa 0,0 l/m 0 min 0 min 0 W/m 9,7 km/h (2 Bft) 93,62 %
22.04.2022 22:44 11,4 C 10,6 C 7,2 C 79 % 1005,5 hPa 0,0 l/m 0 min 0 min 0 W/m 6,4 km/h (2 Bft) 95,74 %
22.04.2022 22:46 11,4 C 10,0 C 7,2 C 79 % 1005,5 hPa 0,0 l/m 0 min 0 min 0 W/m 6,4 km/h (2 Bft) 100,00 %
22.04.2022 22:48 11,4 C 10,0 C 7,2 C 79 % 1005,5 hPa 0,0 l/m 0 min 0 min 0 W/m 6,4 km/h (2 Bft) 97,87 %
22.04.2022 22:50 11,3 C 10,0 C 7,2 C 79 % 1005,5 hPa 0,0 l/m 0 min 0 min 0 W/m 6,4 km/h (2 Bft) 97,87 %
22.04.2022 22:52 11,3 C 10,0 C 7,2 C 79 % 1005,5 hPa 0,0 l/m 0 min 0 min 0 W/m 6,4 km/h (2 Bft) 95,65 %
22.04.2022 22:54 11,3 C 10,0 C 7,2 C 79 % 1005,6 hPa 0,0 l/m 0 min 0 min 0 W/m 6,4 km/h (2 Bft) 97,87 %
22.04.2022 22:56 11,3 C 10,0 C 7,2 C 79 % 1005,5 hPa 0,0 l/m 0 min 0 min 0 W/m 9,7 km/h (2 Bft) 93,62 %
22.04.2022 22:58 11,2 C 10,0 C 6,7 C 79 % 1005,6 hPa 0,0 l/m 0 min 0 min 0 W/m 6,4 km/h (2 Bft) 95,74 %
22.04.2022 23:00 11,2 C 10,0 C 6,7 C 79 % 1005,5 hPa 0,0 l/m 0 min 0 min 0 W/m 6,4 km/h (2 Bft) 97,87 %
22.04.2022 23:02 11,2 C 10,0 C 6,7 C 79 % 1005,6 hPa 0,0 l/m 0 min 0 min 0 W/m 6,4 km/h (2 Bft) 95,74 %
22.04.2022 23:04 11,1 C 10,0 C 6,7 C 80 % 1005,5 hPa 0,0 l/m 0 min 0 min 0 W/m 6,4 km/h (2 Bft) 97,83 %
22.04.2022 23:06 11,1 C 10,0 C 6,7 C 80 % 1005,5 hPa 0,0 l/m 0 min 0 min 0 W/m 6,4 km/h (2 Bft) 94,34 %
22.04.2022 23:08 11,1 C 10,0 C 6,7 C 80 % 1005,5 hPa 0,0 l/m 0 min 0 min 0 W/m 6,4 km/h (2 Bft) 97,87 %
22.04.2022 23:10 11,1 C 10,0 C 6,7 C 80 % 1005,5 hPa 0,0 l/m 0 min 0 min 0 W/m 3,2 km/h (1 Bft) 97,87 %
22.04.2022 23:12 11,0 C 10,0 C 6,7 C 80 % 1005,5 hPa 0,0 l/m 0 min 0 min 0 W/m 6,4 km/h (2 Bft) 97,56 %
22.04.2022 23:14 11,0 C 10,0 C 6,7 C 80 % 1005,5 hPa 0,0 l/m 0 min 0 min 0 W/m 6,4 km/h (2 Bft) 97,87 %
22.04.2022 23:16 10,9 C 10,0 C 6,7 C 80 % 1005,5 hPa 0,0 l/m 0 min 0 min 0 W/m 6,4 km/h (2 Bft) 95,65 %
22.04.2022 23:18 10,9 C 10,0 C 6,7 C 80 % 1005,5 hPa 0,0 l/m 0 min 0 min 0 W/m 6,4 km/h (2 Bft) 97,87 %
22.04.2022 23:20 10,9 C 10,0 C 6,7 C 80 % 1005,5 hPa 0,0 l/m 0 min 0 min 0 W/m 3,2 km/h (1 Bft) 97,87 %
22.04.2022 23:22 10,9 C 10,0 C 6,7 C 80 % 1005,5 hPa 0,0 l/m 0 min 0 min 0 W/m 6,4 km/h (2 Bft) 97,87 %
22.04.2022 23:24 10,8 C 10,0 C 6,7 C 80 % 1005,5 hPa 0,0 l/m 0 min 0 min 0 W/m 6,4 km/h (2 Bft) 95,74 %
22.04.2022 23:26 10,8 C 10,0 C 6,7 C 80 % 1005,5 hPa 0,0 l/m 0 min 0 min 0 W/m 3,2 km/h (1 Bft) 97,83 %
22.04.2022 23:28 10,8 C 10,0 C 6,7 C 80 % 1005,4 hPa 0,0 l/m 0 min 0 min 0 W/m 6,4 km/h (2 Bft) 93,62 %
22.04.2022 23:30 10,8 C 9,4 C 6,7 C 80 % 1005,5 hPa 0,0 l/m 0 min 0 min 0 W/m 3,2 km/h (1 Bft) 97,87 %
22.04.2022 23:32 10,8 C 9,4 C 6,7 C 81 % 1005,4 hPa 0,0 l/m 0 min 0 min 0 W/m 3,2 km/h (1 Bft) 100,00 %
22.04.2022 23:34 10,7 C 9,4 C 6,7 C 81 % 1005,5 hPa 0,0 l/m 0 min 0 min 0 W/m 3,2 km/h (1 Bft) 97,87 %
22.04.2022 23:36 10,7 C 9,4 C 6,7 C 81 % 1005,5 hPa 0,0 l/m 0 min 0 min 0 W/m 6,4 km/h (2 Bft) 100,00 %
22.04.2022 23:38 10,7 C 9,4 C 6,7 C 81 % 1005,5 hPa 0,0 l/m 0 min 0 min 0 W/m 3,2 km/h (1 Bft) 100,00 %
22.04.2022 23:40 10,7 C 9,4 C 6,7 C 81 % 1005,5 hPa 0,0 l/m 0 min 0 min 0 W/m 6,4 km/h (2 Bft) 100,00 %
22.04.2022 23:42 10,7 C 9,4 C 6,7 C 81 % 1005,5 hPa 0,0 l/m 0 min 0 min 0 W/m 9,7 km/h (2 Bft) 100,00 %
22.04.2022 23:44 10,6 C 9,4 C 6,7 C 81 % 1005,5 hPa 0,0 l/m 0 min 0 min 0 W/m 6,4 km/h (2 Bft) 100,00 %
22.04.2022 23:46 10,6 C 9,4 C 6,7 C 81 % 1005,5 hPa 0,0 l/m 0 min 0 min 0 W/m 3,2 km/h (1 Bft) 100,00 %
22.04.2022 23:48 10,6 C 9,4 C 6,7 C 81 % 1005,5 hPa 0,0 l/m 0 min 0 min 0 W/m 6,4 km/h (2 Bft) 100,00 %
22.04.2022 23:50 10,6 C 9,4 C 6,7 C 81 % 1005,5 hPa 0,0 l/m 0 min 0 min 0 W/m 9,7 km/h (2 Bft) 100,00 %
22.04.2022 23:52 10,6 C 9,4 C 6,1 C 82 % 1005,5 hPa 0,0 l/m 0 min 0 min 0 W/m 9,7 km/h (2 Bft) 97,87 %
22.04.2022 23:54 10,6 C 9,4 C 6,1 C 82 % 1005,5 hPa 0,0 l/m 0 min 0 min 0 W/m 9,7 km/h (2 Bft) 100,00 %
22.04.2022 23:56 10,6 C 9,4 C 6,1 C 82 % 1005,5 hPa 0,0 l/m 0 min 0 min 0 W/m 6,4 km/h (2 Bft) 97,87 %
22.04.2022 23:58 10,6 C 9,4 C 6,1 C 82 % 1005,5 hPa 0,0 l/m 0 min 0 min 0 W/m 6,4 km/h (2 Bft) 97,87 %
_ Min-Zeit 06:30 06:26 04:50 16:52 18:08 - - - - 06:18 04:36
Minimum _ 7,9 C 6,7 C 3,9 C 60 % 1004,4 hPa - - - - 0,0 km/h (0 Bft) 67,31 %
_ Max-Zeit 15:02 16:48 12:02 07:14 00:00 00:00 12:08 00:00 13:00 12:40 00:00
Maximum _ 17,8 C 23,9 C 15,0 C 92 % 1009,6 hPa 0,0 l/m 4 min 0 min 1038 W/m 38,6 km/h
W-SW (5 Bft)
100,00 %
Durchschnitt _ 12,5 C 13,0 C 8,7 C 76 % 1006,6 hPa #0,0 l/m #5:08 h #0 min. 300 W/m 13,3 km/h (3 Bft) 97,45 %
© 2022 W. Hausmann